Time,TemperatureF,DewpointF,PressureIn,WindDirection,WindDirectionDegrees,WindSpeedMPH,WindSpeedGustMPH,Humidity,HourlyPrecipIn,Conditions,Clouds,dailyrainin,SoftwareType,DateUTC
2013-03-12 00:01:00,29.6,25.9,29.83,WNW,291,15.0,20.0,86,0.00,,,0.00,Wunderground v.1.15,2013-03-12 05:01:00,
2013-03-12 00:04:00,29.6,25.9,29.83,WNW,288,15.0,20.0,86,0.00,,,0.00,Wunderground v.1.15,2013-03-12 05:04:00,
2013-03-12 00:05:00,29.6,25.9,29.83,West,276,15.0,20.0,86,0.00,,,0.00,Wunderground v.1.15,2013-03-12 05:05:00,
2013-03-12 00:06:00,29.6,25.9,29.83,WNW,282,15.0,20.0,86,0.00,,,0.00,Wunderground v.1.15,2013-03-12 05:06:00,
2013-03-12 00:09:00,29.6,25.9,29.83,West,270,14.0,20.0,86,0.00,,,0.00,Wunderground v.1.15,2013-03-12 05:09:00,
2013-03-12 00:11:00,29.6,25.9,29.83,West,263,14.0,17.0,86,0.00,,,0.00,Wunderground v.1.15,2013-03-12 05:11:00,
2013-03-12 00:12:00,29.6,25.9,29.83,WNW,286,13.0,17.0,86,0.00,,,0.00,Wunderground v.1.15,2013-03-12 05:12:00,
2013-03-12 00:15:00,29.6,26.2,29.83,West,273,13.0,17.0,87,0.00,,,0.00,Wunderground v.1.15,2013-03-12 05:15:00,
2013-03-12 00:17:00,29.6,25.9,29.83,West,277,12.0,17.0,86,0.00,,,0.00,Wunderground v.1.15,2013-03-12 05:17:00,
2013-03-12 00:19:00,29.7,26.0,29.83,WSW,256,12.0,17.0,86,0.00,,,0.00,Wunderground v.1.15,2013-03-12 05:19:00,
2013-03-12 00:20:00,29.6,25.9,29.83,West,263,12.0,12.0,86,0.00,,,0.00,Wunderground v.1.15,2013-03-12 05:20:00,
2013-03-12 00:26:00,29.7,26.3,29.84,WSW,254,11.0,16.0,87,0.00,,,0.00,Wunderground v.1.15,2013-03-12 05:26:00,
2013-03-12 00:27:00,29.6,25.9,29.83,WSW,254,11.0,16.0,86,0.00,,,0.00,Wunderground v.1.15,2013-03-12 05:27:00,
2013-03-12 00:29:00,29.7,26.0,29.83,WSW,251,11.0,16.0,86,0.00,,,0.00,Wunderground v.1.15,2013-03-12 05:29:00,
2013-03-12 00:32:00,29.7,26.3,29.84,West,265,10.0,11.0,87,0.00,,,0.00,Wunderground v.1.15,2013-03-12 05:32:00,
2013-03-12 00:33:00,29.7,26.3,29.84,WSW,256,10.0,11.0,87,0.00,,,0.00,Wunderground v.1.15,2013-03-12 05:33:00,
2013-03-12 00:34:00,29.7,26.3,29.84,NW,311,10.0,11.0,87,0.00,,,0.00,Wunderground v.1.15,2013-03-12 05:34:00,
2013-03-12 00:38:00,29.7,26.0,29.84,WNW,286,10.0,16.0,86,0.00,,,0.00,Wunderground v.1.15,2013-03-12 05:38:00,
2013-03-12 00:41:00,29.8,25.8,29.83,WSW,252,11.0,11.0,85,0.00,,,0.00,Wunderground v.1.15,2013-03-12 05:41:00,
2013-03-12 00:43:00,29.8,26.1,29.83,West,263,11.0,11.0,86,0.00,,,0.00,Wunderground v.1.15,2013-03-12 05:43:00,
2013-03-12 00:44:00,29.8,25.8,29.84,West,277,11.0,14.0,85,0.00,,,0.00,Wunderground v.1.15,2013-03-12 05:44:00,
2013-03-12 00:45:00,29.8,25.8,29.83,WSW,254,11.0,14.0,85,0.00,,,0.00,Wunderground v.1.15,2013-03-12 05:45:00,
2013-03-12 00:46:00,29.8,25.6,29.83,WSW,257,11.0,14.0,84,0.00,,,0.00,Wunderground v.1.15,2013-03-12 05:46:00,
2013-03-12 00:50:00,29.9,25.9,29.83,WSW,238,11.0,12.0,85,0.00,,,0.00,Wunderground v.1.15,2013-03-12 05:50:00,
2013-03-12 00:52:00,29.8,25.6,29.83,WSW,258,11.0,15.0,84,0.00,,,0.00,Wunderground v.1.15,2013-03-12 05:52:00,
2013-03-12 00:53:00,29.8,25.6,29.83,WSW,248,11.0,15.0,84,0.00,,,0.00,Wunderground v.1.15,2013-03-12 05:53:00,
2013-03-12 00:55:00,29.8,25.6,29.83,West,261,11.0,15.0,84,0.00,,,0.00,Wunderground v.1.15,2013-03-12 05:55:00,
2013-03-12 00:56:00,29.8,25.6,29.83,WNW,282,11.0,15.0,84,0.00,,,0.00,Wunderground v.1.15,2013-03-12 05:56:00,
2013-03-12 00:57:00,29.8,25.6,29.83,West,273,11.0,15.0,84,0.00,,,0.00,Wunderground v.1.15,2013-03-12 05:57:00,
2013-03-12 01:01:00,29.8,25.6,29.83,West,281,11.0,13.0,84,0.00,,,0.00,Wunderground v.1.15,2013-03-12 06:01:00,
2013-03-12 01:02:00,29.8,25.6,29.83,West,277,11.0,13.0,84,0.00,,,0.00,Wunderground v.1.15,2013-03-12 06:02:00,
2013-03-12 01:04:00,29.7,25.5,29.84,West,269,11.0,13.0,84,0.00,,,0.00,Wunderground v.1.15,2013-03-12 06:04:00,
2013-03-12 01:08:00,29.7,25.5,29.83,West,281,12.0,15.0,84,0.00,,,0.00,Wunderground v.1.15,2013-03-12 06:08:00,
2013-03-12 01:10:00,29.7,25.5,29.83,West,265,13.0,13.0,84,0.00,,,0.00,Wunderground v.1.15,2013-03-12 06:10:00,
2013-03-12 01:11:00,29.7,25.5,29.83,West,279,13.0,13.0,84,0.00,,,0.00,Wunderground v.1.15,2013-03-12 06:11:00,
2013-03-12 01:13:00,29.7,25.5,29.84,West,281,13.0,14.0,84,0.00,,,0.00,Wunderground v.1.15,2013-03-12 06:13:00,
2013-03-12 01:17:00,29.7,25.5,29.84,West,268,12.0,15.0,84,0.00,,,0.00,Wunderground v.1.15,2013-03-12 06:17:00,
2013-03-12 01:18:00,29.7,25.5,29.84,West,270,12.0,15.0,84,0.00,,,0.00,Wunderground v.1.15,2013-03-12 06:18:00,
2013-03-12 01:19:00,29.7,25.5,29.84,West,265,12.0,15.0,84,0.00,,,0.00,Wunderground v.1.15,2013-03-12 06:19:00,
2013-03-12 01:20:00,29.7,25.5,29.84,West,262,12.0,12.0,84,0.00,,,0.00,Wunderground v.1.15,2013-03-12 06:20:00,
2013-03-12 01:24:00,29.7,25.7,29.84,West,275,12.0,15.0,85,0.00,,,0.00,Wunderground v.1.15,2013-03-12 06:24:00,
2013-03-12 01:26:00,29.7,25.7,29.84,West,278,12.0,16.0,85,0.00,,,0.00,Wunderground v.1.15,2013-03-12 06:26:00,
2013-03-12 01:27:00,29.7,25.7,29.85,West,265,12.0,16.0,85,0.00,,,0.00,Wunderground v.1.15,2013-03-12 06:27:00,
2013-03-12 01:30:00,29.6,25.6,29.85,WSW,250,12.0,15.0,85,0.00,,,0.00,Wunderground v.1.15,2013-03-12 06:30:00,
2013-03-12 01:33:00,29.6,25.6,29.85,WSW,250,12.0,19.0,85,0.00,,,0.00,Wunderground v.1.15,2013-03-12 06:33:00,
2013-03-12 01:35:00,29.6,25.4,29.85,West,259,13.0,19.0,84,0.00,,,0.00,Wunderground v.1.15,2013-03-12 06:35:00,
2013-03-12 01:37:00,29.5,25.0,29.85,West,263,13.0,19.0,83,0.00,,,0.00,Wunderground v.1.15,2013-03-12 06:37:00,
2013-03-12 01:38:00,29.5,25.0,29.85,WNW,284,13.0,19.0,83,0.00,,,0.00,Wunderground v.1.15,2013-03-12 06:38:00,
2013-03-12 01:41:00,29.4,24.9,29.85,West,277,14.0,18.0,83,0.00,,,0.00,Wunderground v.1.15,2013-03-12 06:41:00,
2013-03-12 01:43:00,29.3,24.2,29.85,West,271,15.0,18.0,81,0.00,,,0.00,Wunderground v.1.15,2013-03-12 06:43:00,
2013-03-12 01:44:00,29.3,24.2,29.85,West,279,15.0,20.0,81,0.00,,,0.00,Wunderground v.1.15,2013-03-12 06:44:00,
2013-03-12 01:47:00,29.2,24.1,29.85,West,277,16.0,20.0,81,0.00,,,0.00,Wunderground v.1.15,2013-03-12 06:47:00,
2013-03-12 01:50:00,29.2,23.8,29.85,West,281,17.0,17.0,80,0.00,,,0.00,Wunderground v.1.15,2013-03-12 06:50:00,
2013-03-12 01:51:00,29.2,23.8,29.85,NW,311,17.0,21.0,80,0.00,,,0.00,Wunderground v.1.15,2013-03-12 06:51:00,
2013-03-12 01:55:00,29.1,23.7,29.85,West,269,16.0,21.0,80,0.00,,,0.00,Wunderground v.1.15,2013-03-12 06:55:00,
2013-03-12 01:57:00,29.1,23.7,29.86,WSW,257,15.0,21.0,80,0.00,,,0.00,Wunderground v.1.15,2013-03-12 06:57:00,
2013-03-12 01:58:00,29.1,23.7,29.85,West,273,15.0,21.0,80,0.00,,,0.00,Wunderground v.1.15,2013-03-12 06:58:00,
2013-03-12 02:03:00,29.1,24.0,29.85,WNW,288,13.0,20.0,81,0.00,,,0.00,Wunderground v.1.15,2013-03-12 07:03:00,
2013-03-12 02:04:00,29.0,23.6,29.85,WNW,291,13.0,20.0,80,0.00,,,0.00,Wunderground v.1.15,2013-03-12 07:04:00,
2013-03-12 02:06:00,29.0,23.6,29.85,West,277,14.0,21.0,80,0.00,,,0.00,Wunderground v.1.15,2013-03-12 07:06:00,
2013-03-12 02:09:00,29.0,23.9,29.86,West,280,14.0,21.0,81,0.00,,,0.00,Wunderground v.1.15,2013-03-12 07:09:00,
2013-03-12 02:12:00,29.0,24.2,29.85,West,269,14.0,14.0,82,0.00,,,0.00,Wunderground v.1.15,2013-03-12 07:12:00,
2013-03-12 02:13:00,29.0,24.2,29.86,West,269,14.0,14.0,82,0.00,,,0.00,Wunderground v.1.15,2013-03-12 07:13:00,
2013-03-12 02:15:00,29.0,23.9,29.86,WNW,286,13.0,15.0,81,0.00,,,0.00,Wunderground v.1.15,2013-03-12 07:15:00,
2013-03-12 02:18:00,28.9,24.1,29.86,NW,304,13.0,17.0,82,0.00,,,0.00,Wunderground v.1.15,2013-03-12 07:18:00,
2013-03-12 02:21:00,28.9,24.1,29.86,WNW,284,13.0,14.0,82,0.00,,,0.00,Wunderground v.1.15,2013-03-12 07:21:00,
2013-03-12 02:22:00,28.9,23.8,29.86,WNW,292,13.0,14.0,81,0.00,,,0.00,Wunderground v.1.15,2013-03-12 07:22:00,
2013-03-12 02:25:00,28.9,23.8,29.86,NW,317,13.0,16.0,81,0.00,,,0.00,Wunderground v.1.15,2013-03-12 07:25:00,
2013-03-12 02:26:00,28.8,24.0,29.86,WNW,286,13.0,18.0,82,0.00,,,0.00,Wunderground v.1.15,2013-03-12 07:26:00,
2013-03-12 02:30:00,28.8,24.0,29.86,WNW,292,14.0,14.0,82,0.00,,,0.00,Wunderground v.1.15,2013-03-12 07:30:00,
2013-03-12 02:31:00,28.7,23.9,29.86,West,279,14.0,14.0,82,0.00,,,0.00,Wunderground v.1.15,2013-03-12 07:31:00,
2013-03-12 02:33:00,28.7,23.9,29.86,West,261,14.0,19.0,82,0.00,,,0.00,Wunderground v.1.15,2013-03-12 07:33:00,
2013-03-12 02:35:00,28.7,23.9,29.86,West,277,14.0,19.0,82,0.00,,,0.00,Wunderground v.1.15,2013-03-12 07:35:00,
2013-03-12 02:36:00,28.7,23.9,29.86,WNW,300,14.0,19.0,82,0.00,,,0.00,Wunderground v.1.15,2013-03-12 07:36:00,
2013-03-12 02:38:00,28.7,23.9,29.86,West,273,13.0,19.0,82,0.00,,,0.00,Wunderground v.1.15,2013-03-12 07:38:00,
2013-03-12 02:39:00,28.7,23.9,29.86,West,279,12.0,19.0,82,0.00,,,0.00,Wunderground v.1.15,2013-03-12 07:39:00,
2013-03-12 02:40:00,28.7,23.9,29.87,West,280,12.0,16.0,82,0.00,,,0.00,Wunderground v.1.15,2013-03-12 07:40:00,
2013-03-12 02:42:00,28.7,23.9,29.87,WNW,284,13.0,17.0,82,0.00,,,0.00,Wunderground v.1.15,2013-03-12 07:42:00,
2013-03-12 02:44:00,28.7,23.9,29.86,West,276,12.0,17.0,82,0.00,,,0.00,Wunderground v.1.15,2013-03-12 07:44:00,
2013-03-12 02:48:00,28.7,24.2,29.86,West,278,12.0,17.0,83,0.00,,,0.00,Wunderground v.1.15,2013-03-12 07:48:00,
2013-03-12 02:51:00,28.8,24.6,29.86,West,267,12.0,15.0,84,0.00,,,0.00,Wunderground v.1.15,2013-03-12 07:51:00,
2013-03-12 02:52:00,28.8,24.6,29.86,West,268,12.0,15.0,84,0.00,,,0.00,Wunderground v.1.15,2013-03-12 07:52:00,
2013-03-12 02:53:00,28.8,24.6,29.86,West,261,12.0,15.0,84,0.00,,,0.00,Wunderground v.1.15,2013-03-12 07:53:00,
2013-03-12 02:58:00,28.8,24.6,29.86,West,275,12.0,15.0,84,0.00,,,0.00,Wunderground v.1.15,2013-03-12 07:58:00,
2013-03-12 02:59:00,28.7,24.5,29.86,West,280,12.0,15.0,84,0.00,,,0.00,Wunderground v.1.15,2013-03-12 07:59:00,
2013-03-12 03:01:00,28.8,24.6,29.86,West,275,11.0,11.0,84,0.00,,,0.00,Wunderground v.1.15,2013-03-12 08:01:00,
2013-03-12 03:02:00,28.7,24.8,29.86,West,265,11.0,11.0,85,0.00,,,0.00,Wunderground v.1.15,2013-03-12 08:02:00,
2013-03-12 03:06:00,28.8,24.6,29.86,West,273,10.0,12.0,84,0.00,,,0.00,Wunderground v.1.15,2013-03-12 08:06:00,
2013-03-12 03:07:00,28.7,24.5,29.86,West,268,10.0,12.0,84,0.00,,,0.00,Wunderground v.1.15,2013-03-12 08:07:00,
2013-03-12 03:09:00,28.7,24.2,29.86,West,279,11.0,17.0,83,0.00,,,0.00,Wunderground v.1.15,2013-03-12 08:09:00,
2013-03-12 03:12:00,28.7,24.5,29.86,West,281,12.0,13.0,84,0.00,,,0.00,Wunderground v.1.15,2013-03-12 08:12:00,
2013-03-12 03:14:00,28.7,24.5,29.86,West,273,12.0,13.0,84,0.00,,,0.00,Wunderground v.1.15,2013-03-12 08:14:00,
2013-03-12 03:15:00,28.7,24.8,29.86,West,263,12.0,13.0,85,0.00,,,0.00,Wunderground v.1.15,2013-03-12 08:15:00,
2013-03-12 03:18:00,28.6,24.7,29.86,WNW,290,12.0,17.0,85,0.00,,,0.00,Wunderground v.1.15,2013-03-12 08:18:00,
2013-03-12 03:21:00,28.5,24.3,29.86,WNW,284,12.0,15.0,84,0.00,,,0.00,Wunderground v.1.15,2013-03-12 08:21:00,
2013-03-12 03:22:00,28.5,24.3,29.86,WNW,296,11.0,15.0,84,0.00,,,0.00,Wunderground v.1.15,2013-03-12 08:22:00,
2013-03-12 03:23:00,28.4,24.2,29.86,WNW,285,11.0,15.0,84,0.00,,,0.00,Wunderground v.1.15,2013-03-12 08:23:00,
2013-03-12 03:27:00,28.4,24.2,29.86,WNW,283,12.0,17.0,84,0.00,,,0.00,Wunderground v.1.15,2013-03-12 08:27:00,
2013-03-12 03:28:00,28.3,24.1,29.86,WNW,286,12.0,17.0,84,0.00,,,0.00,Wunderground v.1.15,2013-03-12 08:28:00,
2013-03-12 03:31:00,28.2,24.0,29.86,WNW,286,11.0,12.0,84,0.00,,,0.00,Wunderground v.1.15,2013-03-12 08:31:00,
2013-03-12 03:33:00,28.1,23.9,29.86,West,280,11.0,15.0,84,0.00,,,0.00,Wunderground v.1.15,2013-03-12 08:33:00,
2013-03-12 03:35:00,28.1,23.9,29.86,West,280,12.0,15.0,84,0.00,,,0.00,Wunderground v.1.15,2013-03-12 08:35:00,
2013-03-12 03:37:00,28.0,24.1,29.86,West,266,11.0,16.0,85,0.00,,,0.00,Wunderground v.1.15,2013-03-12 08:37:00,
2013-03-12 03:39:00,27.9,23.7,29.86,West,275,11.0,16.0,84,0.00,,,0.00,Wunderground v.1.15,2013-03-12 08:39:00,
2013-03-12 03:41:00,27.9,24.0,29.86,WNW,292,11.0,15.0,85,0.00,,,0.00,Wunderground v.1.15,2013-03-12 08:41:00,
2013-03-12 03:45:00,27.9,24.0,29.86,WNW,283,11.0,15.0,85,0.00,,,0.00,Wunderground v.1.15,2013-03-12 08:45:00,
2013-03-12 03:47:00,27.8,23.9,29.86,West,281,11.0,15.0,85,0.00,,,0.00,Wunderground v.1.15,2013-03-12 08:47:00,
2013-03-12 03:48:00,27.7,23.8,29.86,West,273,11.0,15.0,85,0.00,,,0.00,Wunderground v.1.15,2013-03-12 08:48:00,
2013-03-12 03:52:00,27.6,23.7,29.86,West,276,12.0,12.0,85,0.00,,,0.00,Wunderground v.1.15,2013-03-12 08:52:00,
2013-03-12 03:55:00,27.6,24.0,29.85,West,266,11.0,12.0,86,0.00,,,0.00,Wunderground v.1.15,2013-03-12 08:55:00,
2013-03-12 03:56:00,27.6,24.0,29.85,West,277,11.0,12.0,86,0.00,,,0.00,Wunderground v.1.15,2013-03-12 08:56:00,
2013-03-12 04:00:00,27.5,23.9,29.85,WSW,257,10.0,10.0,86,0.00,,,0.00,Wunderground v.1.15,2013-03-12 09:00:00,
2013-03-12 04:01:00,27.5,23.9,29.86,West,272,10.0,10.0,86,0.00,,,0.00,Wunderground v.1.15,2013-03-12 09:01:00,
2013-03-12 04:02:00,27.5,23.9,29.86,West,269,10.0,10.0,86,0.00,,,0.00,Wunderground v.1.15,2013-03-12 09:02:00,
2013-03-12 04:05:00,27.5,23.9,29.86,WNW,282,10.0,11.0,86,0.00,,,0.00,Wunderground v.1.15,2013-03-12 09:05:00,
2013-03-12 04:07:00,27.5,23.9,29.86,West,273,10.0,11.0,86,0.00,,,0.00,Wunderground v.1.15,2013-03-12 09:07:00,
2013-03-12 04:09:00,27.4,23.8,29.86,WSW,246,11.0,13.0,86,0.00,,,0.00,Wunderground v.1.15,2013-03-12 09:09:00,
2013-03-12 04:12:00,27.4,23.8,29.86,West,268,11.0,12.0,86,0.00,,,0.00,Wunderground v.1.15,2013-03-12 09:12:00,
2013-03-12 04:14:00,27.3,23.7,29.86,West,264,11.0,16.0,86,0.00,,,0.00,Wunderground v.1.15,2013-03-12 09:14:00,
2013-03-12 04:17:00,27.3,23.7,29.86,WSW,244,11.0,16.0,86,0.00,,,0.00,Wunderground v.1.15,2013-03-12 09:17:00,
2013-03-12 04:18:00,27.3,23.7,29.86,WNW,284,11.0,16.0,86,0.00,,,0.00,Wunderground v.1.15,2013-03-12 09:18:00,
2013-03-12 04:19:00,27.2,23.6,29.86,West,281,10.0,16.0,86,0.00,,,0.00,Wunderground v.1.15,2013-03-12 09:19:00,
2013-03-12 04:23:00,27.2,23.8,29.85,WNW,285,9.0,11.0,87,0.00,,,0.00,Wunderground v.1.15,2013-03-12 09:23:00,
2013-03-12 04:24:00,27.2,23.8,29.86,WNW,286,9.0,11.0,87,0.00,,,0.00,Wunderground v.1.15,2013-03-12 09:24:00,
2013-03-12 04:27:00,27.1,23.7,29.85,West,275,9.0,11.0,87,0.00,,,0.00,Wunderground v.1.15,2013-03-12 09:27:00,
2013-03-12 04:28:00,27.1,23.7,29.85,West,277,9.0,11.0,87,0.00,,,0.00,Wunderground v.1.15,2013-03-12 09:28:00,
2013-03-12 04:32:00,27.0,23.6,29.85,WSW,248,8.0,9.0,87,0.00,,,0.00,Wunderground v.1.15,2013-03-12 09:32:00,
2013-03-12 04:33:00,27.0,23.6,29.85,West,263,8.0,9.0,87,0.00,,,0.00,Wunderground v.1.15,2013-03-12 09:33:00,
2013-03-12 04:35:00,27.0,23.6,29.85,WNW,284,8.0,11.0,87,0.00,,,0.00,Wunderground v.1.15,2013-03-12 09:35:00,
2013-03-12 04:37:00,27.0,23.6,29.86,WNW,288,8.0,12.0,87,0.00,,,0.00,Wunderground v.1.15,2013-03-12 09:37:00,
2013-03-12 04:38:00,26.9,23.8,29.86,West,275,8.0,12.0,88,0.00,,,0.00,Wunderground v.1.15,2013-03-12 09:38:00,
2013-03-12 04:40:00,26.9,23.8,29.86,West,277,8.0,8.0,88,0.00,,,0.00,Wunderground v.1.15,2013-03-12 09:40:00,
2013-03-12 04:41:00,26.9,23.5,29.86,WNW,288,8.0,8.0,87,0.00,,,0.00,Wunderground v.1.15,2013-03-12 09:41:00,
2013-03-12 04:44:00,26.9,23.8,29.86,West,276,9.0,12.0,88,0.00,,,0.00,Wunderground v.1.15,2013-03-12 09:44:00,
2013-03-12 04:47:00,26.8,23.7,29.86,WNW,287,9.0,12.0,88,0.00,,,0.00,Wunderground v.1.15,2013-03-12 09:47:00,
2013-03-12 04:48:00,26.8,23.7,29.86,WNW,288,9.0,12.0,88,0.00,,,0.00,Wunderground v.1.15,2013-03-12 09:48:00,
2013-03-12 04:50:00,26.8,23.7,29.85,West,281,9.0,11.0,88,0.00,,,0.00,Wunderground v.1.15,2013-03-12 09:50:00,
2013-03-12 04:52:00,26.8,23.7,29.86,WNW,285,9.0,12.0,88,0.00,,,0.00,Wunderground v.1.15,2013-03-12 09:52:00,
2013-03-12 04:53:00,26.8,23.7,29.86,West,266,9.0,12.0,88,0.00,,,0.00,Wunderground v.1.15,2013-03-12 09:53:00,
2013-03-12 04:57:00,26.7,23.6,29.86,West,279,8.0,12.0,88,0.00,,,0.00,Wunderground v.1.15,2013-03-12 09:57:00,
2013-03-12 04:59:00,26.7,23.6,29.86,WNW,286,8.0,12.0,88,0.00,,,0.00,Wunderground v.1.15,2013-03-12 09:59:00,
2013-03-12 05:00:00,26.7,23.6,29.86,West,265,9.0,9.0,88,0.00,,,0.00,Wunderground v.1.15,2013-03-12 10:00:00,
2013-03-12 05:01:00,26.7,23.6,29.86,West,281,9.0,9.0,88,0.00,,,0.00,Wunderground v.1.15,2013-03-12 10:01:00,
2013-03-12 05:04:00,26.7,23.6,29.86,West,279,9.0,13.0,88,0.00,,,0.00,Wunderground v.1.15,2013-03-12 10:04:00,
2013-03-12 05:07:00,26.7,23.6,29.86,WNW,282,9.0,13.0,88,0.00,,,0.00,Wunderground v.1.15,2013-03-12 10:07:00,
2013-03-12 05:08:00,26.6,23.5,29.86,West,271,9.0,13.0,88,0.00,,,0.00,Wunderground v.1.15,2013-03-12 10:08:00,
2013-03-12 05:11:00,26.6,23.3,29.87,WNW,292,9.0,12.0,87,0.00,,,0.00,Wunderground v.1.15,2013-03-12 10:11:00,
2013-03-12 05:12:00,26.6,23.5,29.87,West,279,9.0,12.0,88,0.00,,,0.00,Wunderground v.1.15,2013-03-12 10:12:00,
2013-03-12 05:18:00,26.6,23.5,29.88,West,261,8.0,12.0,88,0.00,,,0.00,Wunderground v.1.15,2013-03-12 10:18:00,
2013-03-12 05:19:00,26.6,23.5,29.88,West,272,8.0,12.0,88,0.00,,,0.00,Wunderground v.1.15,2013-03-12 10:19:00,
2013-03-12 05:21:00,26.6,23.5,29.88,West,271,8.0,11.0,88,0.00,,,0.00,Wunderground v.1.15,2013-03-12 10:21:00,
2013-03-12 05:24:00,26.6,23.3,29.88,West,260,8.0,11.0,87,0.00,,,0.00,Wunderground v.1.15,2013-03-12 10:24:00,
2013-03-12 05:27:00,26.6,23.3,29.88,West,274,8.0,11.0,87,0.00,,,0.00,Wunderground v.1.15,2013-03-12 10:27:00,
2013-03-12 05:28:00,26.6,23.3,29.88,West,260,9.0,11.0,87,0.00,,,0.00,Wunderground v.1.15,2013-03-12 10:28:00,
2013-03-12 05:30:00,26.6,23.3,29.88,West,263,9.0,12.0,87,0.00,,,0.00,Wunderground v.1.15,2013-03-12 10:30:00,
2013-03-12 05:31:00,26.6,23.3,29.88,West,271,10.0,12.0,87,0.00,,,0.00,Wunderground v.1.15,2013-03-12 10:31:00,
2013-03-12 05:34:00,26.6,23.3,29.89,West,268,10.0,13.0,87,0.00,,,0.00,Wunderground v.1.15,2013-03-12 10:34:00,
2013-03-12 05:35:00,26.6,23.3,29.89,West,263,10.0,13.0,87,0.00,,,0.00,Wunderground v.1.15,2013-03-12 10:35:00,
2013-03-12 05:38:00,26.6,23.3,29.89,West,259,10.0,13.0,87,0.00,,,0.00,Wunderground v.1.15,2013-03-12 10:38:00,
2013-03-12 05:40:00,26.6,23.3,29.89,WSW,249,10.0,10.0,87,0.00,,,0.00,Wunderground v.1.15,2013-03-12 10:40:00,
2013-03-12 05:41:00,26.6,23.3,29.89,West,277,10.0,10.0,87,0.00,,,0.00,Wunderground v.1.15,2013-03-12 10:41:00,
2013-03-12 05:43:00,26.6,23.3,29.89,West,262,9.0,12.0,87,0.00,,,0.00,Wunderground v.1.15,2013-03-12 10:43:00,
2013-03-12 05:47:00,26.6,23.3,29.89,West,273,8.0,12.0,87,0.00,,,0.00,Wunderground v.1.15,2013-03-12 10:47:00,
2013-03-12 05:50:00,26.6,23.0,29.89,WSW,248,9.0,9.0,86,0.00,,,0.00,Wunderground v.1.15,2013-03-12 10:50:00,
2013-03-12 05:51:00,26.6,23.0,29.89,West,263,9.0,9.0,86,0.00,,,0.00,Wunderground v.1.15,2013-03-12 10:51:00,
2013-03-12 05:54:00,26.5,22.9,29.89,West,259,9.0,10.0,86,0.00,,,0.00,Wunderground v.1.15,2013-03-12 10:54:00,
2013-03-12 05:56:00,26.5,22.9,29.89,West,265,9.0,10.0,86,0.00,,,0.00,Wunderground v.1.15,2013-03-12 10:56:00,
2013-03-12 05:57:00,26.6,23.0,29.89,West,263,9.0,10.0,86,0.00,,,0.00,Wunderground v.1.15,2013-03-12 10:57:00,
2013-03-12 05:59:00,26.5,23.2,29.89,WSW,256,8.0,10.0,87,0.00,,,0.00,Wunderground v.1.15,2013-03-12 10:59:00,
2013-03-12 06:00:00,26.5,23.2,29.90,WSW,257,8.0,8.0,87,0.00,,,0.00,Wunderground v.1.15,2013-03-12 11:00:00,
2013-03-12 06:04:00,26.5,23.2,29.90,West,261,8.0,9.0,87,0.00,,,0.00,Wunderground v.1.15,2013-03-12 11:04:00,
2013-03-12 06:05:00,26.5,23.2,29.90,West,271,8.0,9.0,87,0.00,,,0.00,Wunderground v.1.15,2013-03-12 11:05:00,
2013-03-12 06:08:00,26.5,23.2,29.90,West,262,8.0,10.0,87,0.00,,,0.00,Wunderground v.1.15,2013-03-12 11:08:00,
2013-03-12 06:11:00,26.5,22.9,29.90,WSW,254,8.0,10.0,86,0.00,,,0.00,Wunderground v.1.15,2013-03-12 11:11:00,
2013-03-12 06:13:00,26.5,22.9,29.90,West,275,8.0,10.0,86,0.00,,,0.00,Wunderground v.1.15,2013-03-12 11:13:00,
2013-03-12 06:16:00,26.5,23.2,29.90,West,277,8.0,12.0,87,0.00,,,0.00,Wunderground v.1.15,2013-03-12 11:16:00,
2013-03-12 06:17:00,26.5,23.2,29.90,West,275,8.0,12.0,87,0.00,,,0.00,Wunderground v.1.15,2013-03-12 11:17:00,
2013-03-12 06:21:00,26.4,23.1,29.90,West,271,8.0,13.0,87,0.00,,,0.00,Wunderground v.1.15,2013-03-12 11:21:00,
2013-03-12 06:22:00,26.4,23.1,29.90,WSW,249,9.0,13.0,87,0.00,,,0.00,Wunderground v.1.15,2013-03-12 11:22:00,
2013-03-12 06:24:00,26.4,23.1,29.90,West,260,9.0,13.0,87,0.00,,,0.00,Wunderground v.1.15,2013-03-12 11:24:00,
2013-03-12 06:27:00,26.4,23.1,29.90,West,267,9.0,13.0,87,0.00,,,0.00,Wunderground v.1.15,2013-03-12 11:27:00,
2013-03-12 06:29:00,26.4,23.1,29.90,West,278,9.0,13.0,87,0.00,,,0.00,Wunderground v.1.15,2013-03-12 11:29:00,
2013-03-12 06:31:00,26.3,23.2,29.90,West,270,9.0,10.0,88,0.00,,,0.00,Wunderground v.1.15,2013-03-12 11:31:00,
2013-03-12 06:32:00,26.3,23.2,29.90,West,259,9.0,10.0,88,0.00,,,0.00,Wunderground v.1.15,2013-03-12 11:32:00,
2013-03-12 06:33:00,26.3,23.2,29.90,West,260,9.0,10.0,88,0.00,,,0.00,Wunderground v.1.15,2013-03-12 11:33:00,
2013-03-12 06:37:00,26.3,23.2,29.90,West,281,8.0,11.0,88,0.00,,,0.00,Wunderground v.1.15,2013-03-12 11:37:00,
2013-03-12 06:38:00,26.3,23.2,29.90,West,267,8.0,11.0,88,0.00,,,0.00,Wunderground v.1.15,2013-03-12 11:38:00,
2013-03-12 06:41:00,26.2,23.1,29.89,West,273,7.0,9.0,88,0.00,,,0.00,Wunderground v.1.15,2013-03-12 11:41:00,
2013-03-12 06:42:00,26.2,23.1,29.89,West,271,7.0,9.0,88,0.00,,,0.00,Wunderground v.1.15,2013-03-12 11:42:00,
2013-03-12 06:44:00,26.2,23.1,29.89,West,281,7.0,9.0,88,0.00,,,0.00,Wunderground v.1.15,2013-03-12 11:44:00,
2013-03-12 06:47:00,26.2,23.1,29.89,WNW,287,8.0,13.0,88,0.00,,,0.00,Wunderground v.1.15,2013-03-12 11:47:00,
2013-03-12 06:48:00,26.2,23.1,29.89,West,262,8.0,13.0,88,0.00,,,0.00,Wunderground v.1.15,2013-03-12 11:48:00,
2013-03-12 06:51:00,26.2,23.1,29.89,West,264,8.0,12.0,88,0.00,,,0.00,Wunderground v.1.15,2013-03-12 11:51:00,
2013-03-12 06:52:00,26.2,23.1,29.89,West,261,8.0,12.0,88,0.00,,,0.00,Wunderground v.1.15,2013-03-12 11:52:00,
2013-03-12 06:56:00,26.2,23.4,29.90,West,265,8.0,12.0,89,0.00,,,0.00,Wunderground v.1.15,2013-03-12 11:56:00,
2013-03-12 06:58:00,26.1,23.3,29.90,West,271,8.0,12.0,89,0.00,,,0.00,Wunderground v.1.15,2013-03-12 11:58:00,
2013-03-12 07:00:00,26.1,23.3,29.90,WSW,254,8.0,9.0,89,0.00,,,0.00,Wunderground v.1.15,2013-03-12 12:00:00,
2013-03-12 07:03:00,26.1,23.3,29.90,WSW,258,9.0,9.0,89,0.00,,,0.00,Wunderground v.1.15,2013-03-12 12:03:00,
2013-03-12 07:04:00,26.1,23.3,29.90,West,262,9.0,10.0,89,0.00,,,0.00,Wunderground v.1.15,2013-03-12 12:04:00,
2013-03-12 07:07:00,26.1,23.3,29.89,West,261,8.0,10.0,89,0.00,,,0.00,Wunderground v.1.15,2013-03-12 12:07:00,
2013-03-12 07:09:00,26.1,23.6,29.89,West,277,8.0,11.0,90,0.00,,,0.00,Wunderground v.1.15,2013-03-12 12:09:00,
2013-03-12 07:10:00,26.1,23.6,29.89,WSW,256,8.0,8.0,90,0.00,,,0.00,Wunderground v.1.15,2013-03-12 12:10:00,
2013-03-12 07:12:00,26.0,23.5,29.89,WSW,253,8.0,8.0,90,0.00,,,0.00,Wunderground v.1.15,2013-03-12 12:12:00,
2013-03-12 07:13:00,26.0,23.5,29.90,WSW,257,8.0,8.0,90,0.00,,,0.00,Wunderground v.1.15,2013-03-12 12:13:00,
2013-03-12 07:14:00,26.0,23.5,29.90,WSW,257,8.0,8.0,90,0.00,,,0.00,Wunderground v.1.15,2013-03-12 12:14:00,
2013-03-12 07:17:00,26.0,23.5,29.90,WSW,247,7.0,8.0,90,0.00,,,0.00,Wunderground v.1.15,2013-03-12 12:17:00,
2013-03-12 07:19:00,26.0,23.5,29.90,WSW,250,7.0,8.0,90,0.00,,,0.00,Wunderground v.1.15,2013-03-12 12:19:00,
2013-03-12 07:20:00,26.0,23.5,29.90,West,261,7.0,7.0,90,0.00,,,0.00,Wunderground v.1.15,2013-03-12 12:20:00,
2013-03-12 07:24:00,25.9,23.6,29.90,WSW,247,7.0,10.0,91,0.00,,,0.00,Wunderground v.1.15,2013-03-12 12:24:00,
2013-03-12 07:26:00,25.9,23.6,29.90,WSW,246,7.0,12.0,91,0.00,,,0.00,Wunderground v.1.15,2013-03-12 12:26:00,
2013-03-12 07:27:00,25.9,23.6,29.90,West,260,7.0,12.0,91,0.00,,,0.00,Wunderground v.1.15,2013-03-12 12:27:00,
2013-03-12 07:29:00,25.9,23.6,29.90,WSW,240,8.0,12.0,91,0.00,,,0.00,Wunderground v.1.15,2013-03-12 12:29:00,
2013-03-12 07:32:00,25.9,23.6,29.90,WSW,247,8.0,9.0,91,0.00,,,0.00,Wunderground v.1.15,2013-03-12 12:32:00,
2013-03-12 07:34:00,25.9,23.6,29.90,WSW,250,9.0,9.0,91,0.00,,,0.00,Wunderground v.1.15,2013-03-12 12:34:00,
2013-03-12 07:35:00,25.9,23.6,29.90,WSW,248,9.0,9.0,91,0.00,,,0.00,Wunderground v.1.15,2013-03-12 12:35:00,
2013-03-12 07:38:00,25.8,23.5,29.90,WSW,245,9.0,9.0,91,0.00,,,0.00,Wunderground v.1.15,2013-03-12 12:38:00,
2013-03-12 07:40:00,25.9,23.6,29.90,WSW,249,9.0,10.0,91,0.00,,,0.00,Wunderground v.1.15,2013-03-12 12:40:00,
2013-03-12 07:41:00,25.9,23.6,29.90,WSW,248,9.0,10.0,91,0.00,,,0.00,Wunderground v.1.15,2013-03-12 12:41:00,
2013-03-12 07:43:00,25.9,23.6,29.90,WSW,252,9.0,10.0,91,0.00,,,0.00,Wunderground v.1.15,2013-03-12 12:43:00,
2013-03-12 07:44:00,25.9,23.6,29.90,WSW,249,9.0,10.0,91,0.00,,,0.00,Wunderground v.1.15,2013-03-12 12:44:00,
2013-03-12 07:46:00,25.9,23.6,29.90,West,265,9.0,11.0,91,0.00,,,0.00,Wunderground v.1.15,2013-03-12 12:46:00,
2013-03-12 07:49:00,26.0,23.7,29.90,WSW,252,9.0,11.0,91,0.00,,,0.00,Wunderground v.1.15,2013-03-12 12:49:00,
2013-03-12 07:50:00,26.0,24.0,29.90,West,263,8.0,8.0,92,0.00,,,0.00,Wunderground v.1.15,2013-03-12 12:50:00,
2013-03-12 07:52:00,26.0,24.0,29.91,WSW,252,8.0,8.0,92,0.00,,,0.00,Wunderground v.1.15,2013-03-12 12:52:00,
2013-03-12 07:55:00,26.1,23.8,29.90,WSW,250,8.0,10.0,91,0.00,,,0.00,Wunderground v.1.15,2013-03-12 12:55:00,
2013-03-12 07:56:00,26.1,23.8,29.90,WSW,252,8.0,10.0,91,0.00,,,0.00,Wunderground v.1.15,2013-03-12 12:56:00,
2013-03-12 07:58:00,26.1,23.8,29.90,WSW,252,8.0,10.0,91,0.00,,,0.00,Wunderground v.1.15,2013-03-12 12:58:00,
2013-03-12 08:01:00,26.1,23.8,29.90,WSW,257,9.0,9.0,91,0.00,,,0.00,Wunderground v.1.15,2013-03-12 13:01:00,
2013-03-12 08:02:00,26.1,23.8,29.90,WSW,251,9.0,9.0,91,0.00,,,0.00,Wunderground v.1.15,2013-03-12 13:02:00,
2013-03-12 08:07:00,26.3,24.0,29.90,WSW,250,9.0,12.0,91,0.00,,,0.00,Wunderground v.1.15,2013-03-12 13:07:00,
2013-03-12 08:08:00,26.3,24.0,29.90,West,260,9.0,12.0,91,0.00,,,0.00,Wunderground v.1.15,2013-03-12 13:08:00,
2013-03-12 08:10:00,26.3,24.0,29.91,WSW,250,9.0,9.0,91,0.00,,,0.00,Wunderground v.1.15,2013-03-12 13:10:00,
2013-03-12 08:13:00,26.4,24.1,29.91,WSW,249,10.0,10.0,91,0.00,,,0.00,Wunderground v.1.15,2013-03-12 13:13:00,
2013-03-12 08:16:00,26.5,24.5,29.90,WSW,244,10.0,11.0,92,0.00,,,0.00,Wunderground v.1.15,2013-03-12 13:16:00,
2013-03-12 08:19:00,26.6,24.3,29.91,WSW,248,10.0,11.0,91,0.00,,,0.00,Wunderground v.1.15,2013-03-12 13:19:00,
2013-03-12 08:21:00,26.7,24.4,29.91,WSW,239,10.0,16.0,91,0.00,,,0.00,Wunderground v.1.15,2013-03-12 13:21:00,
2013-03-12 08:22:00,26.7,24.4,29.91,WSW,239,10.0,16.0,91,0.00,,,0.00,Wunderground v.1.15,2013-03-12 13:22:00,
2013-03-12 08:24:00,26.7,24.4,29.91,WSW,250,10.0,16.0,91,0.00,,,0.00,Wunderground v.1.15,2013-03-12 13:24:00,
2013-03-12 08:27:00,26.8,24.5,29.91,WSW,240,11.0,16.0,91,0.00,,,0.00,Wunderground v.1.15,2013-03-12 13:27:00,
2013-03-12 08:28:00,26.8,24.5,29.91,WSW,246,11.0,16.0,91,0.00,,,0.00,Wunderground v.1.15,2013-03-12 13:28:00,
2013-03-12 08:29:00,26.8,24.5,29.91,WSW,244,11.0,16.0,91,0.00,,,0.00,Wunderground v.1.15,2013-03-12 13:29:00,
2013-03-12 08:33:00,27.0,24.7,29.92,WSW,255,11.0,16.0,91,0.00,,,0.00,Wunderground v.1.15,2013-03-12 13:33:00,
2013-03-12 08:34:00,27.1,24.8,29.92,WSW,252,11.0,16.0,91,0.00,,,0.00,Wunderground v.1.15,2013-03-12 13:34:00,
2013-03-12 08:35:00,27.1,24.8,29.92,WSW,242,11.0,18.0,91,0.00,,,0.00,Wunderground v.1.15,2013-03-12 13:35:00,
2013-03-12 08:41:00,27.1,24.8,29.92,WSW,248,12.0,12.0,91,0.00,,,0.00,Wunderground v.1.15,2013-03-12 13:41:00,
2013-03-12 08:43:00,27.1,24.6,29.92,WSW,253,13.0,13.0,90,0.00,,,0.00,Wunderground v.1.15,2013-03-12 13:43:00,
2013-03-12 08:46:00,27.2,24.9,29.93,WSW,255,13.0,14.0,91,0.00,,,0.00,Wunderground v.1.15,2013-03-12 13:46:00,
2013-03-12 08:48:00,27.2,24.7,29.93,West,259,12.0,16.0,90,0.00,,,0.00,Wunderground v.1.15,2013-03-12 13:48:00,
2013-03-12 08:49:00,27.2,24.7,29.93,WSW,248,12.0,16.0,90,0.00,,,0.00,Wunderground v.1.15,2013-03-12 13:49:00,
2013-03-12 08:50:00,27.2,24.7,29.92,WSW,242,12.0,13.0,90,0.00,,,0.00,Wunderground v.1.15,2013-03-12 13:50:00,
2013-03-12 08:54:00,27.4,24.9,29.93,WSW,256,13.0,18.0,90,0.00,,,0.00,Wunderground v.1.15,2013-03-12 13:54:00,
2013-03-12 08:55:00,27.4,24.9,29.92,WSW,251,13.0,18.0,90,0.00,,,0.00,Wunderground v.1.15,2013-03-12 13:55:00,
2013-03-12 08:56:00,27.5,25.0,29.93,WSW,250,13.0,18.0,90,0.00,,,0.00,Wunderground v.1.15,2013-03-12 13:56:00,
2013-03-12 09:00:00,27.6,25.1,29.92,WSW,252,13.0,13.0,90,0.00,,,0.00,Wunderground v.1.15,2013-03-12 14:00:00,
2013-03-12 09:02:00,27.6,25.1,29.92,West,259,12.0,13.0,90,0.00,,,0.00,Wunderground v.1.15,2013-03-12 14:02:00,
2013-03-12 09:03:00,27.5,25.0,29.92,West,281,12.0,13.0,90,0.00,,,0.00,Wunderground v.1.15,2013-03-12 14:03:00,
2013-03-12 09:04:00,27.5,24.7,29.92,WSW,241,12.0,13.0,89,0.00,,,0.00,Wunderground v.1.15,2013-03-12 14:04:00,
2013-03-12 09:06:00,27.6,25.1,29.92,West,259,12.0,14.0,90,0.00,,,0.00,Wunderground v.1.15,2013-03-12 14:06:00,
2013-03-12 09:10:00,27.8,25.0,29.92,WSW,245,12.0,13.0,89,0.00,,,0.00,Wunderground v.1.15,2013-03-12 14:10:00,
2013-03-12 09:11:00,27.8,25.2,29.92,WSW,252,13.0,13.0,90,0.00,,,0.00,Wunderground v.1.15,2013-03-12 14:11:00,
2013-03-12 09:12:00,27.9,25.3,29.92,WSW,245,12.0,13.0,90,0.00,,,0.00,Wunderground v.1.15,2013-03-12 14:12:00,
2013-03-12 09:13:00,27.9,25.1,29.92,WSW,250,12.0,15.0,89,0.00,,,0.00,Wunderground v.1.15,2013-03-12 14:13:00,
2013-03-12 09:17:00,27.8,25.0,29.93,WSW,257,12.0,15.0,89,0.00,,,0.00,Wunderground v.1.15,2013-03-12 14:17:00,
2013-03-12 09:20:00,27.8,25.0,29.93,WSW,252,13.0,15.0,89,0.00,,,0.00,Wunderground v.1.15,2013-03-12 14:20:00,
2013-03-12 09:25:00,28.1,25.3,29.93,West,261,13.0,15.0,89,0.00,,,0.00,Wunderground v.1.15,2013-03-12 14:25:00,
2013-03-12 09:26:00,28.1,25.3,29.93,West,265,13.0,15.0,89,0.00,,,0.00,Wunderground v.1.15,2013-03-12 14:26:00,
2013-03-12 09:27:00,28.2,25.4,29.93,WSW,250,13.0,15.0,89,0.00,,,0.00,Wunderground v.1.15,2013-03-12 14:27:00,
2013-03-12 09:32:00,28.6,25.8,29.94,West,260,12.0,12.0,89,0.00,,,0.00,Wunderground v.1.15,2013-03-12 14:32:00,
2013-03-12 09:34:00,28.7,25.6,29.94,WSW,254,12.0,13.0,88,0.00,,,0.00,Wunderground v.1.15,2013-03-12 14:34:00,
2013-03-12 09:35:00,28.6,25.5,29.94,West,262,12.0,13.0,88,0.00,,,0.00,Wunderground v.1.15,2013-03-12 14:35:00,
2013-03-12 09:37:00,28.6,25.5,29.94,SW,227,12.0,19.0,88,0.00,,,0.00,Wunderground v.1.15,2013-03-12 14:37:00,
2013-03-12 09:40:00,28.7,25.6,29.94,WSW,257,13.0,14.0,88,0.00,,,0.00,Wunderground v.1.15,2013-03-12 14:40:00,
2013-03-12 09:42:00,28.7,25.6,29.94,WSW,252,13.0,15.0,88,0.00,,,0.00,Wunderground v.1.15,2013-03-12 14:42:00,
2013-03-12 09:43:00,28.8,25.7,29.94,WSW,251,13.0,15.0,88,0.00,,,0.00,Wunderground v.1.15,2013-03-12 14:43:00,
2013-03-12 09:49:00,29.2,26.4,29.94,WSW,249,12.0,15.0,89,0.00,,,0.00,Wunderground v.1.15,2013-03-12 14:49:00,
2013-03-12 09:51:00,29.4,26.6,29.94,WSW,246,11.0,12.0,89,0.00,,,0.00,Wunderground v.1.15,2013-03-12 14:51:00,
2013-03-12 09:54:00,29.4,26.3,29.94,WSW,240,11.0,18.0,88,0.00,,,0.00,Wunderground v.1.15,2013-03-12 14:54:00,
2013-03-12 09:55:00,29.3,26.2,29.93,WSW,237,12.0,18.0,88,0.00,,,0.00,Wunderground v.1.15,2013-03-12 14:55:00,
2013-03-12 09:56:00,29.2,25.8,29.93,SW,233,13.0,19.0,87,0.00,,,0.00,Wunderground v.1.15,2013-03-12 14:56:00,
2013-03-12 10:02:00,29.4,26.3,29.94,WSW,243,15.0,15.0,88,0.00,,,0.00,Wunderground v.1.15,2013-03-12 15:02:00,
2013-03-12 10:03:00,29.4,26.3,29.94,WSW,258,15.0,15.0,88,0.00,,,0.00,Wunderground v.1.15,2013-03-12 15:03:00,
2013-03-12 10:04:00,29.5,26.4,29.95,WSW,242,14.0,15.0,88,0.00,,,0.00,Wunderground v.1.15,2013-03-12 15:04:00,
2013-03-12 10:05:00,29.6,26.5,29.94,WSW,257,13.0,15.0,88,0.00,,,0.00,Wunderground v.1.15,2013-03-12 15:05:00,
2013-03-12 10:08:00,29.7,26.6,29.94,WSW,253,13.0,15.0,88,0.00,,,0.00,Wunderground v.1.15,2013-03-12 15:08:00,
2013-03-12 10:11:00,29.8,26.7,29.94,West,259,13.0,13.0,88,0.00,,,0.00,Wunderground v.1.15,2013-03-12 15:11:00,
2013-03-12 10:13:00,29.9,26.5,29.94,West,260,13.0,16.0,87,0.00,,,0.00,Wunderground v.1.15,2013-03-12 15:13:00,
2013-03-12 10:16:00,30.0,26.6,29.94,WSW,247,13.0,16.0,87,0.00,,,0.00,Wunderground v.1.15,2013-03-12 15:16:00,
2013-03-12 10:17:00,30.0,26.3,29.94,West,281,13.0,16.0,86,0.00,,,0.00,Wunderground v.1.15,2013-03-12 15:17:00,
2013-03-12 10:18:00,30.1,26.4,29.95,WSW,246,13.0,16.0,86,0.00,,,0.00,Wunderground v.1.15,2013-03-12 15:18:00,
2013-03-12 10:24:00,30.2,26.5,29.95,WSW,252,12.0,15.0,86,0.00,,,0.00,Wunderground v.1.15,2013-03-12 15:24:00,
2013-03-12 10:27:00,30.2,26.2,29.94,West,261,12.0,15.0,85,0.00,,,0.00,Wunderground v.1.15,2013-03-12 15:27:00,
2013-03-12 10:28:00,30.3,26.3,29.94,WSW,257,13.0,15.0,85,0.00,,,0.00,Wunderground v.1.15,2013-03-12 15:28:00,
2013-03-12 10:31:00,30.5,26.8,29.94,WSW,254,12.0,17.0,86,0.00,,,0.00,Wunderground v.1.15,2013-03-12 15:31:00,
2013-03-12 10:32:00,30.6,26.6,29.94,WSW,252,13.0,17.0,85,0.00,,,0.00,Wunderground v.1.15,2013-03-12 15:32:00,
2013-03-12 10:34:00,30.6,26.6,29.94,WSW,243,13.0,18.0,85,0.00,,,0.00,Wunderground v.1.15,2013-03-12 15:34:00,
2013-03-12 10:35:00,30.6,26.9,29.94,WSW,249,13.0,18.0,86,0.00,,,0.00,Wunderground v.1.15,2013-03-12 15:35:00,
2013-03-12 10:37:00,30.7,27.0,29.94,WSW,255,13.0,18.0,86,0.00,,,0.00,Wunderground v.1.15,2013-03-12 15:37:00,
2013-03-12 10:40:00,31.0,27.6,29.94,West,279,13.0,13.0,87,0.00,,,0.00,Wunderground v.1.15,2013-03-12 15:40:00,
2013-03-12 10:42:00,31.1,27.1,29.93,WSW,248,12.0,13.0,85,0.00,,,0.00,Wunderground v.1.15,2013-03-12 15:42:00,
2013-03-12 10:43:00,31.1,27.1,29.93,WSW,255,12.0,13.0,85,0.00,,,0.00,Wunderground v.1.15,2013-03-12 15:43:00,
2013-03-12 10:44:00,31.2,27.5,29.93,West,261,11.0,13.0,86,0.00,,,0.00,Wunderground v.1.15,2013-03-12 15:44:00,
2013-03-12 10:46:00,31.2,27.2,29.93,West,259,10.0,13.0,85,0.00,,,0.00,Wunderground v.1.15,2013-03-12 15:46:00,
2013-03-12 10:50:00,31.3,27.3,29.93,WSW,258,10.0,11.0,85,0.00,,,0.00,Wunderground v.1.15,2013-03-12 15:50:00,
2013-03-12 10:51:00,31.4,27.4,29.93,West,259,10.0,11.0,85,0.00,,,0.00,Wunderground v.1.15,2013-03-12 15:51:00,
2013-03-12 10:53:00,31.4,27.4,29.93,WSW,246,11.0,13.0,85,0.00,,,0.00,Wunderground v.1.15,2013-03-12 15:53:00,
2013-03-12 10:56:00,31.5,27.2,29.93,WSW,242,11.0,13.0,84,0.00,,,0.00,Wunderground v.1.15,2013-03-12 15:56:00,
2013-03-12 10:59:00,31.6,27.0,29.94,West,262,11.0,14.0,83,0.00,,,0.00,Wunderground v.1.15,2013-03-12 15:59:00,
2013-03-12 11:00:00,31.6,27.3,29.94,West,266,11.0,12.0,84,0.00,,,0.00,Wunderground v.1.15,2013-03-12 16:00:00,
2013-03-12 11:04:00,31.7,27.4,29.94,WSW,253,12.0,13.0,84,0.00,,,0.00,Wunderground v.1.15,2013-03-12 16:04:00,
2013-03-12 11:05:00,31.7,27.1,29.94,West,264,12.0,13.0,83,0.00,,,0.00,Wunderground v.1.15,2013-03-12 16:05:00,
2013-03-12 11:06:00,31.7,27.1,29.94,WSW,248,12.0,13.0,83,0.00,,,0.00,Wunderground v.1.15,2013-03-12 16:06:00,
2013-03-12 11:08:00,31.9,27.6,29.93,WSW,255,12.0,13.0,84,0.00,,,0.00,Wunderground v.1.15,2013-03-12 16:08:00,
2013-03-12 11:12:00,32.0,27.4,29.93,WSW,254,12.0,14.0,83,0.00,,,0.00,Wunderground v.1.15,2013-03-12 16:12:00,
2013-03-12 11:14:00,32.0,27.4,29.93,WSW,242,12.0,17.0,83,0.00,,,0.00,Wunderground v.1.15,2013-03-12 16:14:00,
2013-03-12 11:15:00,32.1,27.5,29.93,WSW,242,12.0,17.0,83,0.00,,,0.00,Wunderground v.1.15,2013-03-12 16:15:00,
2013-03-12 11:18:00,32.3,28.0,29.93,West,268,12.0,17.0,84,0.00,,,0.00,Wunderground v.1.15,2013-03-12 16:18:00,
2013-03-12 11:20:00,32.4,27.8,29.93,WSW,246,13.0,15.0,83,0.00,,,0.00,Wunderground v.1.15,2013-03-12 16:20:00,
2013-03-12 11:21:00,32.5,28.2,29.93,WSW,253,13.0,15.0,84,0.00,,,0.00,Wunderground v.1.15,2013-03-12 16:21:00,
2013-03-12 11:23:00,32.5,28.2,29.93,WSW,252,13.0,15.0,84,0.00,,,0.00,Wunderground v.1.15,2013-03-12 16:23:00,
2013-03-12 11:24:00,32.5,27.9,29.94,WSW,249,13.0,15.0,83,0.00,,,0.00,Wunderground v.1.15,2013-03-12 16:24:00,
2013-03-12 11:27:00,32.6,28.3,29.94,SW,233,13.0,19.0,84,0.00,,,0.00,Wunderground v.1.15,2013-03-12 16:27:00,
2013-03-12 11:29:00,32.6,28.3,29.94,WSW,257,14.0,19.0,84,0.00,,,0.00,Wunderground v.1.15,2013-03-12 16:29:00,
2013-03-12 11:31:00,32.8,28.8,29.94,WSW,252,14.0,14.0,85,0.00,,,0.00,Wunderground v.1.15,2013-03-12 16:31:00,
2013-03-12 11:33:00,33.0,29.0,29.94,West,259,13.0,14.0,85,0.00,,,0.00,Wunderground v.1.15,2013-03-12 16:33:00,
2013-03-12 11:34:00,33.2,29.2,29.94,WSW,251,13.0,14.0,85,0.00,,,0.00,Wunderground v.1.15,2013-03-12 16:34:00,
2013-03-12 11:37:00,33.6,29.3,29.94,WSW,255,13.0,14.0,84,0.00,,,0.00,Wunderground v.1.15,2013-03-12 16:37:00,
2013-03-12 11:39:00,33.7,29.7,29.94,WSW,254,13.0,18.0,85,0.00,,,0.00,Wunderground v.1.15,2013-03-12 16:39:00,
2013-03-12 11:41:00,33.7,29.1,29.94,WSW,247,12.0,14.0,83,0.00,,,0.00,Wunderground v.1.15,2013-03-12 16:41:00,
2013-03-12 11:42:00,33.8,29.5,29.94,West,263,12.0,14.0,84,0.00,,,0.00,Wunderground v.1.15,2013-03-12 16:42:00,
2013-03-12 11:44:00,33.8,29.5,29.94,West,259,13.0,14.0,84,0.00,,,0.00,Wunderground v.1.15,2013-03-12 16:44:00,
2013-03-12 11:45:00,33.8,29.2,29.94,West,263,13.0,14.0,83,0.00,,,0.00,Wunderground v.1.15,2013-03-12 16:45:00,
2013-03-12 11:49:00,34.1,29.8,29.94,WSW,254,12.0,14.0,84,0.00,,,0.00,Wunderground v.1.15,2013-03-12 16:49:00,
2013-03-12 11:51:00,34.1,29.5,29.94,WSW,250,12.0,13.0,83,0.00,,,0.00,Wunderground v.1.15,2013-03-12 16:51:00,
2013-03-12 11:53:00,34.1,28.9,29.94,West,260,12.0,15.0,81,0.00,,,0.00,Wunderground v.1.15,2013-03-12 16:53:00,
2013-03-12 11:54:00,34.1,29.2,29.94,WSW,247,12.0,15.0,82,0.00,,,0.00,Wunderground v.1.15,2013-03-12 16:54:00,
2013-03-12 11:56:00,34.2,29.3,29.94,West,263,12.0,15.0,82,0.00,,,0.00,Wunderground v.1.15,2013-03-12 16:56:00,
2013-03-12 11:58:00,34.2,28.7,29.94,West,264,13.0,15.0,80,0.00,,,0.00,Wunderground v.1.15,2013-03-12 16:58:00,
2013-03-12 11:59:00,34.2,28.7,29.94,WSW,257,13.0,15.0,80,0.00,,,0.00,Wunderground v.1.15,2013-03-12 16:59:00,
2013-03-12 12:04:00,34.6,29.7,29.94,West,273,13.0,15.0,82,0.00,,,0.00,Wunderground v.1.15,2013-03-12 17:04:00,
2013-03-12 12:05:00,34.6,29.1,29.94,West,271,13.0,16.0,80,0.00,,,0.00,Wunderground v.1.15,2013-03-12 17:05:00,
2013-03-12 12:06:00,34.6,29.1,29.94,WSW,254,12.0,16.0,80,0.00,,,0.00,Wunderground v.1.15,2013-03-12 17:06:00,
2013-03-12 12:07:00,34.6,29.1,29.94,WNW,282,12.0,16.0,80,0.00,,,0.00,Wunderground v.1.15,2013-03-12 17:07:00,
2013-03-12 12:11:00,34.7,29.2,29.94,West,271,13.0,14.0,80,0.00,,,0.00,Wunderground v.1.15,2013-03-12 17:11:00,
2013-03-12 12:13:00,34.8,29.9,29.94,West,271,13.0,14.0,82,0.00,,,0.00,Wunderground v.1.15,2013-03-12 17:13:00,
2013-03-12 12:16:00,35.0,29.8,29.94,WSW,257,12.0,14.0,81,0.00,,,0.00,Wunderground v.1.15,2013-03-12 17:16:00,
2013-03-12 12:18:00,34.8,29.0,29.94,West,261,12.0,16.0,79,0.00,,,0.00,Wunderground v.1.15,2013-03-12 17:18:00,
2013-03-12 12:20:00,34.7,28.9,29.94,WSW,248,12.0,14.0,79,0.00,,,0.00,Wunderground v.1.15,2013-03-12 17:20:00,
2013-03-12 12:21:00,34.7,29.5,29.94,West,270,12.0,14.0,81,0.00,,,0.00,Wunderground v.1.15,2013-03-12 17:21:00,
2013-03-12 12:25:00,34.7,29.2,29.94,WNW,300,13.0,16.0,80,0.00,,,0.00,Wunderground v.1.15,2013-03-12 17:25:00,
2013-03-12 12:26:00,34.7,29.2,29.94,West,281,13.0,16.0,80,0.00,,,0.00,Wunderground v.1.15,2013-03-12 17:26:00,
2013-03-12 12:28:00,34.7,28.9,29.94,WSW,246,12.0,16.0,79,0.00,,,0.00,Wunderground v.1.15,2013-03-12 17:28:00,
2013-03-12 12:30:00,34.6,28.8,29.94,West,261,13.0,13.0,79,0.00,,,0.00,Wunderground v.1.15,2013-03-12 17:30:00,
2013-03-12 12:31:00,34.5,28.3,29.94,West,263,13.0,13.0,78,0.00,,,0.00,Wunderground v.1.15,2013-03-12 17:31:00,
2013-03-12 12:32:00,34.5,28.7,29.94,WSW,257,12.0,13.0,79,0.00,,,0.00,Wunderground v.1.15,2013-03-12 17:32:00,
2013-03-12 12:35:00,34.4,28.2,29.94,WSW,258,12.0,18.0,78,0.00,,,0.00,Wunderground v.1.15,2013-03-12 17:35:00,
2013-03-12 12:36:00,34.4,27.9,29.94,WSW,257,12.0,18.0,77,0.00,,,0.00,Wunderground v.1.15,2013-03-12 17:36:00,
2013-03-12 12:39:00,34.7,28.5,29.94,WNW,293,12.0,18.0,78,0.00,,,0.00,Wunderground v.1.15,2013-03-12 17:39:00,
2013-03-12 12:41:00,34.7,29.2,29.94,SW,236,12.0,18.0,80,0.00,,,0.00,Wunderground v.1.15,2013-03-12 17:41:00,
2013-03-12 12:42:00,34.8,29.3,29.94,WSW,249,12.0,18.0,80,0.00,,,0.00,Wunderground v.1.15,2013-03-12 17:42:00,
2013-03-12 12:45:00,34.8,29.3,29.93,WSW,250,12.0,18.0,80,0.00,,,0.00,Wunderground v.1.15,2013-03-12 17:45:00,
2013-03-12 12:47:00,34.9,29.4,29.93,West,263,11.0,18.0,80,0.00,,,0.00,Wunderground v.1.15,2013-03-12 17:47:00,
2013-03-12 12:50:00,35.0,29.5,29.93,West,261,11.0,11.0,80,0.00,,,0.00,Wunderground v.1.15,2013-03-12 17:50:00,
2013-03-12 12:55:00,35.2,29.3,29.93,WSW,242,11.0,16.0,79,0.00,,,0.00,Wunderground v.1.15,2013-03-12 17:55:00,
2013-03-12 12:58:00,35.1,29.2,29.93,WSW,250,13.0,19.0,79,0.00,,,0.00,Wunderground v.1.15,2013-03-12 17:58:00,
2013-03-12 12:59:00,35.1,29.2,29.93,WSW,250,13.0,19.0,79,0.00,,,0.00,Wunderground v.1.15,2013-03-12 17:59:00,
2013-03-12 13:01:00,35.0,29.5,29.93,WSW,244,14.0,14.0,80,0.00,,,0.00,Wunderground v.1.15,2013-03-12 18:01:00,
2013-03-12 13:03:00,35.0,29.5,29.93,WSW,257,14.0,14.0,80,0.00,,,0.00,Wunderground v.1.15,2013-03-12 18:03:00,
2013-03-12 13:05:00,35.2,30.0,29.93,WSW,242,14.0,19.0,81,0.00,,,0.00,Wunderground v.1.15,2013-03-12 18:05:00,
2013-03-12 13:06:00,35.2,29.3,29.93,West,261,14.0,19.0,79,0.00,,,0.00,Wunderground v.1.15,2013-03-12 18:06:00,
2013-03-12 13:11:00,35.1,29.2,29.93,WSW,256,14.0,14.0,79,0.00,,,0.00,Wunderground v.1.15,2013-03-12 18:11:00,
2013-03-12 13:12:00,35.1,29.2,29.93,WSW,248,14.0,14.0,79,0.00,,,0.00,Wunderground v.1.15,2013-03-12 18:12:00,
2013-03-12 13:13:00,35.1,29.2,29.93,West,259,15.0,15.0,79,0.00,,,0.00,Wunderground v.1.15,2013-03-12 18:13:00,
2013-03-12 13:16:00,35.2,29.6,29.93,WSW,240,14.0,15.0,80,0.00,,,0.00,Wunderground v.1.15,2013-03-12 18:16:00,
2013-03-12 13:19:00,35.5,30.5,29.92,WSW,238,13.0,15.0,82,0.00,,,0.00,Wunderground v.1.15,2013-03-12 18:19:00,
2013-03-12 13:20:00,35.6,30.6,29.93,WSW,251,14.0,14.0,82,0.00,,,0.00,Wunderground v.1.15,2013-03-12 18:20:00,
2013-03-12 13:22:00,35.7,30.4,29.93,WSW,247,14.0,14.0,81,0.00,,,0.00,Wunderground v.1.15,2013-03-12 18:22:00,
2013-03-12 13:25:00,35.7,30.1,29.92,WSW,238,13.0,22.0,80,0.00,,,0.00,Wunderground v.1.15,2013-03-12 18:25:00,
2013-03-12 13:27:00,35.5,29.6,29.92,SW,235,14.0,22.0,79,0.00,,,0.00,Wunderground v.1.15,2013-03-12 18:27:00,
2013-03-12 13:28:00,35.5,29.9,29.93,WSW,252,15.0,22.0,80,0.00,,,0.00,Wunderground v.1.15,2013-03-12 18:28:00,
2013-03-12 13:31:00,35.6,30.0,29.93,WSW,257,15.0,19.0,80,0.00,,,0.00,Wunderground v.1.15,2013-03-12 18:31:00,
2013-03-12 13:32:00,35.5,29.3,29.93,WSW,247,16.0,19.0,78,0.00,,,0.00,Wunderground v.1.15,2013-03-12 18:32:00,
2013-03-12 13:33:00,35.5,29.3,29.93,WSW,252,16.0,19.0,78,0.00,,,0.00,Wunderground v.1.15,2013-03-12 18:33:00,
2013-03-12 13:34:00,35.4,29.5,29.93,WSW,246,16.0,19.0,79,0.00,,,0.00,Wunderground v.1.15,2013-03-12 18:34:00,
2013-03-12 13:38:00,35.3,29.4,29.93,WSW,257,17.0,25.0,79,0.00,,,0.00,Wunderground v.1.15,2013-03-12 18:38:00,
2013-03-12 13:39:00,35.3,29.4,29.92,WSW,250,17.0,25.0,79,0.00,,,0.00,Wunderground v.1.15,2013-03-12 18:39:00,
2013-03-12 13:41:00,35.3,29.7,29.93,WSW,250,18.0,19.0,80,0.00,,,0.00,Wunderground v.1.15,2013-03-12 18:41:00,
2013-03-12 13:42:00,35.3,29.4,29.93,West,273,18.0,19.0,79,0.00,,,0.00,Wunderground v.1.15,2013-03-12 18:42:00,
2013-03-12 13:44:00,35.2,30.0,29.93,WSW,238,17.0,19.0,81,0.00,,,0.00,Wunderground v.1.15,2013-03-12 18:44:00,
2013-03-12 13:47:00,35.1,30.2,29.93,West,263,17.0,19.0,82,0.00,,,0.00,Wunderground v.1.15,2013-03-12 18:47:00,
2013-03-12 13:48:00,35.0,30.1,29.92,West,265,16.0,19.0,82,0.00,,,0.00,Wunderground v.1.15,2013-03-12 18:48:00,
2013-03-12 13:53:00,34.3,30.8,29.93,WSW,250,18.0,23.0,87,0.00,,,0.00,Wunderground v.1.15,2013-03-12 18:53:00,
2013-03-12 13:55:00,34.1,31.2,29.93,WSW,249,19.0,23.0,89,0.00,,,0.00,Wunderground v.1.15,2013-03-12 18:55:00,
2013-03-12 13:56:00,34.0,31.1,29.93,WSW,240,19.0,24.0,89,0.00,,,0.00,Wunderground v.1.15,2013-03-12 18:56:00,
2013-03-12 13:57:00,33.9,30.7,29.93,WSW,254,20.0,24.0,88,0.00,,,0.00,Wunderground v.1.15,2013-03-12 18:57:00,
2013-03-12 13:59:00,33.8,30.6,29.93,WSW,254,21.0,24.0,88,0.00,,,0.00,Wunderground v.1.15,2013-03-12 18:59:00,
2013-03-12 14:01:00,33.7,30.5,29.93,WSW,250,21.0,22.0,88,0.00,,,0.00,Wunderground v.1.15,2013-03-12 19:01:00,
2013-03-12 14:03:00,33.6,30.4,29.93,West,259,21.0,22.0,88,0.00,,,0.00,Wunderground v.1.15,2013-03-12 19:03:00,
2013-03-12 14:05:00,33.6,30.7,29.93,WSW,257,20.0,22.0,89,0.00,,,0.00,Wunderground v.1.15,2013-03-12 19:05:00,
2013-03-12 14:06:00,33.6,30.7,29.93,West,271,19.0,22.0,89,0.00,,,0.00,Wunderground v.1.15,2013-03-12 19:06:00,
2013-03-12 14:09:00,33.5,30.6,29.93,WSW,247,18.0,22.0,89,0.00,,,0.00,Wunderground v.1.15,2013-03-12 19:09:00,
2013-03-12 14:10:00,33.5,30.6,29.93,West,261,18.0,21.0,89,0.00,,,0.00,Wunderground v.1.15,2013-03-12 19:10:00,
2013-03-12 14:13:00,33.5,30.9,29.93,WSW,246,17.0,21.0,90,0.00,,,0.00,Wunderground v.1.15,2013-03-12 19:13:00,
2013-03-12 14:14:00,33.4,31.1,29.93,WSW,253,17.0,21.0,91,0.00,,,0.00,Wunderground v.1.15,2013-03-12 19:14:00,
2013-03-12 14:16:00,33.5,31.2,29.93,West,264,17.0,21.0,91,0.00,,,0.00,Wunderground v.1.15,2013-03-12 19:16:00,
2013-03-12 14:18:00,33.5,31.2,29.93,West,259,16.0,21.0,91,0.00,,,0.00,Wunderground v.1.15,2013-03-12 19:18:00,
2013-03-12 14:20:00,33.5,31.2,29.93,WSW,257,16.0,20.0,91,0.00,,,0.00,Wunderground v.1.15,2013-03-12 19:20:00,
2013-03-12 14:23:00,33.4,31.1,29.93,West,259,17.0,23.0,91,0.00,,,0.00,Wunderground v.1.15,2013-03-12 19:23:00,
2013-03-12 14:24:00,33.4,31.1,29.93,SW,236,17.0,23.0,91,0.00,,,0.00,Wunderground v.1.15,2013-03-12 19:24:00,
2013-03-12 14:25:00,33.4,31.3,29.93,WSW,241,17.0,24.0,92,0.00,,,0.00,Wunderground v.1.15,2013-03-12 19:25:00,
2013-03-12 14:26:00,33.4,31.3,29.93,WSW,246,18.0,24.0,92,0.00,,,0.00,Wunderground v.1.15,2013-03-12 19:26:00,
2013-03-12 14:32:00,33.4,31.6,29.93,WSW,250,18.0,18.0,93,0.00,,,0.00,Wunderground v.1.15,2013-03-12 19:32:00,
2013-03-12 14:33:00,33.3,31.2,29.93,WSW,247,18.0,23.0,92,0.00,,,0.00,Wunderground v.1.15,2013-03-12 19:33:00,
2013-03-12 14:34:00,33.3,31.5,29.93,WSW,254,18.0,23.0,93,0.00,,,0.00,Wunderground v.1.15,2013-03-12 19:34:00,
2013-03-12 14:38:00,33.2,31.4,29.93,WSW,249,18.0,30.0,93,0.00,,,0.00,Wunderground v.1.15,2013-03-12 19:38:00,
2013-03-12 14:40:00,33.0,31.2,29.93,WSW,251,19.0,22.0,93,0.00,,,0.00,Wunderground v.1.15,2013-03-12 19:40:00,
2013-03-12 14:41:00,32.9,31.1,29.93,SW,234,19.0,22.0,93,0.00,,,0.00,Wunderground v.1.15,2013-03-12 19:41:00,
2013-03-12 14:43:00,32.8,31.0,29.93,WSW,251,19.0,23.0,93,0.00,,,0.00,Wunderground v.1.15,2013-03-12 19:43:00,
2013-03-12 14:45:00,32.6,30.8,29.94,WSW,258,20.0,25.0,93,0.00,,,0.00,Wunderground v.1.15,2013-03-12 19:45:00,
2013-03-12 14:47:00,32.5,31.0,29.93,WSW,248,21.0,25.0,94,0.00,,,0.00,Wunderground v.1.15,2013-03-12 19:47:00,
2013-03-12 14:50:00,32.4,30.9,29.93,West,267,20.0,20.0,94,0.00,,,0.00,Wunderground v.1.15,2013-03-12 19:50:00,
2013-03-12 14:52:00,32.4,30.9,29.93,WSW,257,19.0,20.0,94,0.00,,,0.00,Wunderground v.1.15,2013-03-12 19:52:00,
2013-03-12 14:53:00,32.5,31.2,29.94,WSW,258,19.0,20.0,95,0.00,,,0.00,Wunderground v.1.15,2013-03-12 19:53:00,
2013-03-12 14:55:00,32.5,31.2,29.93,WSW,254,18.0,20.0,95,0.00,,,0.00,Wunderground v.1.15,2013-03-12 19:55:00,
2013-03-12 14:56:00,32.6,31.3,29.93,WSW,250,17.0,20.0,95,0.00,,,0.00,Wunderground v.1.15,2013-03-12 19:56:00,
2013-03-12 14:58:00,32.6,31.3,29.93,WSW,252,17.0,20.0,95,0.00,,,0.00,Wunderground v.1.15,2013-03-12 19:58:00,
2013-03-12 15:00:00,32.7,31.4,29.93,WSW,256,16.0,16.0,95,0.00,,,0.00,Wunderground v.1.15,2013-03-12 20:00:00,
2013-03-12 15:01:00,32.8,31.5,29.93,WSW,244,16.0,19.0,95,0.00,,,0.00,Wunderground v.1.15,2013-03-12 20:01:00,
2013-03-12 15:02:00,32.8,31.5,29.93,West,260,16.0,22.0,95,0.00,,,0.00,Wunderground v.1.15,2013-03-12 20:02:00,
2013-03-12 15:05:00,32.8,31.5,29.93,WSW,255,17.0,22.0,95,0.00,,,0.00,Wunderground v.1.15,2013-03-12 20:05:00,
2013-03-12 15:06:00,32.8,31.5,29.93,WSW,255,17.0,22.0,95,0.00,,,0.00,Wunderground v.1.15,2013-03-12 20:06:00,
2013-03-12 15:09:00,32.9,31.6,29.93,WSW,249,17.0,23.0,95,0.00,,,0.00,Wunderground v.1.15,2013-03-12 20:09:00,
2013-03-12 15:13:00,33.0,31.7,29.93,WSW,249,16.0,18.0,95,0.00,,,0.00,Wunderground v.1.15,2013-03-12 20:13:00,
2013-03-12 15:15:00,33.0,31.7,29.93,WSW,251,16.0,20.0,95,0.00,,,0.00,Wunderground v.1.15,2013-03-12 20:15:00,
2013-03-12 15:16:00,33.0,31.7,29.92,West,267,17.0,21.0,95,0.00,,,0.00,Wunderground v.1.15,2013-03-12 20:16:00,
2013-03-12 15:19:00,33.1,31.8,29.93,West,267,18.0,26.0,95,0.00,,,0.00,Wunderground v.1.15,2013-03-12 20:19:00,
2013-03-12 15:23:00,33.4,31.9,29.93,West,263,19.0,21.0,94,0.00,,,0.00,Wunderground v.1.15,2013-03-12 20:23:00,
2013-03-12 15:24:00,33.5,32.2,29.93,WSW,257,19.0,21.0,95,0.00,,,0.00,Wunderground v.1.15,2013-03-12 20:24:00,
2013-03-12 15:25:00,33.6,32.1,29.93,WNW,300,20.0,21.0,94,0.00,,,0.00,Wunderground v.1.15,2013-03-12 20:25:00,
2013-03-12 15:28:00,33.9,32.4,29.93,WSW,240,18.0,21.0,94,0.00,,,0.00,Wunderground v.1.15,2013-03-12 20:28:00,
2013-03-12 15:30:00,34.0,32.2,29.93,WSW,244,17.0,19.0,93,0.00,,,0.00,Wunderground v.1.15,2013-03-12 20:30:00,
2013-03-12 15:31:00,34.0,32.2,29.93,WSW,257,17.0,21.0,93,0.00,,,0.00,Wunderground v.1.15,2013-03-12 20:31:00,
2013-03-12 15:36:00,33.8,31.7,29.93,West,272,15.0,21.0,92,0.00,,,0.00,Wunderground v.1.15,2013-03-12 20:36:00,
2013-03-12 15:37:00,33.8,31.7,29.93,WSW,244,15.0,21.0,92,0.00,,,0.00,Wunderground v.1.15,2013-03-12 20:37:00,
2013-03-12 15:38:00,33.8,31.7,29.93,WSW,246,15.0,21.0,92,0.00,,,0.00,Wunderground v.1.15,2013-03-12 20:38:00,
2013-03-12 15:39:00,33.7,31.4,29.93,West,264,16.0,21.0,91,0.00,,,0.00,Wunderground v.1.15,2013-03-12 20:39:00,
2013-03-12 15:44:00,33.5,30.9,29.93,West,263,15.0,18.0,90,0.00,,,0.00,Wunderground v.1.15,2013-03-12 20:44:00,
2013-03-12 15:46:00,33.5,30.9,29.94,West,272,15.0,18.0,90,0.00,,,0.00,Wunderground v.1.15,2013-03-12 20:46:00,
2013-03-12 15:48:00,33.4,30.8,29.94,WSW,250,15.0,18.0,90,0.00,,,0.00,Wunderground v.1.15,2013-03-12 20:48:00,
2013-03-12 15:50:00,33.4,30.5,29.94,WSW,250,15.0,18.0,89,0.00,,,0.00,Wunderground v.1.15,2013-03-12 20:50:00,
2013-03-12 15:53:00,33.4,30.2,29.94,WNW,289,15.0,18.0,88,0.00,,,0.00,Wunderground v.1.15,2013-03-12 20:53:00,
2013-03-12 15:55:00,33.5,30.3,29.94,West,265,15.0,18.0,88,0.00,,,0.00,Wunderground v.1.15,2013-03-12 20:55:00,
2013-03-12 15:57:00,33.5,30.3,29.94,WNW,300,15.0,18.0,88,0.00,,,0.00,Wunderground v.1.15,2013-03-12 20:57:00,
2013-03-12 15:59:00,33.5,30.3,29.94,WNW,289,15.0,20.0,88,0.00,,,0.00,Wunderground v.1.15,2013-03-12 20:59:00,
2013-03-12 16:01:00,33.6,30.1,29.94,West,259,15.0,17.0,87,0.00,,,0.00,Wunderground v.1.15,2013-03-12 21:01:00,
2013-03-12 16:05:00,33.7,30.2,29.94,West,265,15.0,17.0,87,0.00,,,0.00,Wunderground v.1.15,2013-03-12 21:05:00,
2013-03-12 16:06:00,33.7,30.2,29.94,WSW,253,15.0,19.0,87,0.00,,,0.00,Wunderground v.1.15,2013-03-12 21:06:00,
2013-03-12 16:08:00,33.8,30.3,29.94,WSW,255,15.0,19.0,87,0.00,,,0.00,Wunderground v.1.15,2013-03-12 21:08:00,
2013-03-12 16:12:00,34.0,30.0,29.94,West,264,14.0,24.0,85,0.00,,,0.00,Wunderground v.1.15,2013-03-12 21:12:00,
2013-03-12 16:13:00,34.0,30.0,29.94,West,275,15.0,24.0,85,0.00,,,0.00,Wunderground v.1.15,2013-03-12 21:13:00,
2013-03-12 16:14:00,34.1,30.1,29.94,West,275,15.0,24.0,85,0.00,,,0.00,Wunderground v.1.15,2013-03-12 21:14:00,
2013-03-12 16:18:00,34.5,30.7,29.94,West,263,14.0,24.0,86,0.00,,,0.00,Wunderground v.1.15,2013-03-12 21:18:00,
2013-03-12 16:22:00,34.7,30.7,29.93,WNW,285,13.0,14.0,85,0.00,,,0.00,Wunderground v.1.15,2013-03-12 21:22:00,
2013-03-12 16:24:00,34.7,30.4,29.93,West,275,13.0,15.0,84,0.00,,,0.00,Wunderground v.1.15,2013-03-12 21:24:00,
2013-03-12 16:25:00,34.8,30.5,29.93,West,268,13.0,15.0,84,0.00,,,0.00,Wunderground v.1.15,2013-03-12 21:25:00,
2013-03-12 16:26:00,34.8,30.5,29.93,WSW,243,13.0,15.0,84,0.00,,,0.00,Wunderground v.1.15,2013-03-12 21:26:00,
2013-03-12 16:30:00,34.9,30.0,29.93,West,261,14.0,19.0,82,0.00,,,0.00,Wunderground v.1.15,2013-03-12 21:30:00,
2013-03-12 16:31:00,34.8,29.9,29.93,WSW,252,15.0,19.0,82,0.00,,,0.00,Wunderground v.1.15,2013-03-12 21:31:00,
2013-03-12 16:32:00,34.8,29.9,29.93,WNW,284,15.0,19.0,82,0.00,,,0.00,Wunderground v.1.15,2013-03-12 21:32:00,
2013-03-12 16:35:00,34.9,30.0,29.94,West,265,15.0,19.0,82,0.00,,,0.00,Wunderground v.1.15,2013-03-12 21:35:00,
2013-03-12 16:37:00,35.0,30.1,29.93,WNW,285,15.0,19.0,82,0.00,,,0.00,Wunderground v.1.15,2013-03-12 21:37:00,
2013-03-12 16:38:00,35.1,30.2,29.94,West,275,15.0,19.0,82,0.00,,,0.00,Wunderground v.1.15,2013-03-12 21:38:00,
2013-03-12 16:41:00,35.1,29.6,29.94,WSW,252,14.0,14.0,80,0.00,,,0.00,Wunderground v.1.15,2013-03-12 21:41:00,
2013-03-12 16:45:00,35.1,29.9,29.93,WNW,286,15.0,20.0,81,0.00,,,0.00,Wunderground v.1.15,2013-03-12 21:45:00,
2013-03-12 16:46:00,35.1,29.2,29.93,WNW,286,15.0,20.0,79,0.00,,,0.00,Wunderground v.1.15,2013-03-12 21:46:00,
2013-03-12 16:51:00,35.0,29.5,29.94,West,269,15.0,15.0,80,0.00,,,0.00,Wunderground v.1.15,2013-03-12 21:51:00,
2013-03-12 16:53:00,34.9,29.7,29.94,WNW,283,15.0,18.0,81,0.00,,,0.00,Wunderground v.1.15,2013-03-12 21:53:00,
2013-03-12 16:54:00,34.9,29.7,29.94,West,277,15.0,20.0,81,0.00,,,0.00,Wunderground v.1.15,2013-03-12 21:54:00,
2013-03-12 16:55:00,34.9,29.7,29.94,West,279,16.0,20.0,81,0.00,,,0.00,Wunderground v.1.15,2013-03-12 21:55:00,
2013-03-12 16:57:00,34.9,29.7,29.93,West,280,16.0,20.0,81,0.00,,,0.00,Wunderground v.1.15,2013-03-12 21:57:00,
2013-03-12 17:00:00,34.8,29.6,29.94,WNW,287,16.0,16.0,81,0.00,,,0.00,Wunderground v.1.15,2013-03-12 22:00:00,
2013-03-12 17:03:00,34.8,29.9,29.94,NW,304,16.0,20.0,82,0.00,,,0.00,Wunderground v.1.15,2013-03-12 22:03:00,
2013-03-12 17:04:00,34.8,29.9,29.94,West,271,17.0,20.0,82,0.00,,,0.00,Wunderground v.1.15,2013-03-12 22:04:00,
2013-03-12 17:05:00,34.7,30.1,29.94,WNW,292,16.0,20.0,83,0.00,,,0.00,Wunderground v.1.15,2013-03-12 22:05:00,
2013-03-12 17:06:00,34.7,30.1,29.94,West,267,16.0,20.0,83,0.00,,,0.00,Wunderground v.1.15,2013-03-12 22:06:00,
2013-03-12 17:09:00,34.6,30.0,29.94,West,277,16.0,20.0,83,0.00,,,0.00,Wunderground v.1.15,2013-03-12 22:09:00,
2013-03-12 17:10:00,34.6,30.0,29.94,NW,307,16.0,16.0,83,0.00,,,0.00,Wunderground v.1.15,2013-03-12 22:10:00,
2013-03-12 17:12:00,34.6,30.0,29.94,West,259,16.0,17.0,83,0.00,,,0.00,Wunderground v.1.15,2013-03-12 22:12:00,
2013-03-12 17:13:00,34.5,29.9,29.94,West,277,15.0,17.0,83,0.00,,,0.00,Wunderground v.1.15,2013-03-12 22:13:00,
2013-03-12 17:14:00,34.5,29.9,29.94,West,259,15.0,17.0,83,0.00,,,0.00,Wunderground v.1.15,2013-03-12 22:14:00,
2013-03-12 17:19:00,34.2,30.2,29.94,WSW,253,15.0,23.0,85,0.00,,,0.00,Wunderground v.1.15,2013-03-12 22:19:00,
2013-03-12 17:20:00,34.1,30.1,29.94,West,270,15.0,15.0,85,0.00,,,0.00,Wunderground v.1.15,2013-03-12 22:20:00,
2013-03-12 17:24:00,34.0,30.5,29.94,WSW,240,14.0,17.0,87,0.00,,,0.00,Wunderground v.1.15,2013-03-12 22:24:00,
2013-03-12 17:25:00,33.9,30.4,29.94,WNW,284,15.0,17.0,87,0.00,,,0.00,Wunderground v.1.15,2013-03-12 22:25:00,
2013-03-12 17:26:00,33.9,30.2,29.94,West,259,14.0,17.0,86,0.00,,,0.00,Wunderground v.1.15,2013-03-12 22:26:00,
2013-03-12 17:27:00,33.9,30.4,29.94,West,259,15.0,19.0,87,0.00,,,0.00,Wunderground v.1.15,2013-03-12 22:27:00,
2013-03-12 17:30:00,33.8,30.3,29.94,West,261,15.0,20.0,87,0.00,,,0.00,Wunderground v.1.15,2013-03-12 22:30:00,
2013-03-12 17:32:00,33.7,30.2,29.94,WSW,254,15.0,20.0,87,0.00,,,0.00,Wunderground v.1.15,2013-03-12 22:32:00,
2013-03-12 17:36:00,33.7,30.2,29.95,West,277,15.0,22.0,87,0.00,,,0.00,Wunderground v.1.15,2013-03-12 22:36:00,
2013-03-12 17:37:00,33.7,30.2,29.94,WNW,288,15.0,22.0,87,0.00,,,0.00,Wunderground v.1.15,2013-03-12 22:37:00,
2013-03-12 17:38:00,33.6,30.4,29.94,NW,305,15.0,26.0,88,0.00,,,0.00,Wunderground v.1.15,2013-03-12 22:38:00,
2013-03-12 17:40:00,33.4,30.2,29.94,WNW,286,16.0,16.0,88,0.00,,,0.00,Wunderground v.1.15,2013-03-12 22:40:00,
2013-03-12 17:44:00,33.3,30.1,29.94,West,265,18.0,19.0,88,0.00,,,0.00,Wunderground v.1.15,2013-03-12 22:44:00,
2013-03-12 17:45:00,33.3,30.1,29.94,West,269,18.0,20.0,88,0.00,,,0.00,Wunderground v.1.15,2013-03-12 22:45:00,
2013-03-12 17:46:00,33.2,30.0,29.94,West,281,18.0,20.0,88,0.00,,,0.00,Wunderground v.1.15,2013-03-12 22:46:00,
2013-03-12 17:50:00,33.3,29.8,29.95,WNW,282,16.0,16.0,87,0.00,,,0.00,Wunderground v.1.15,2013-03-12 22:50:00,
2013-03-12 17:51:00,33.3,29.8,29.95,West,275,16.0,16.0,87,0.00,,,0.00,Wunderground v.1.15,2013-03-12 22:51:00,
2013-03-12 17:55:00,33.3,30.1,29.95,WSW,246,14.0,16.0,88,0.00,,,0.00,Wunderground v.1.15,2013-03-12 22:55:00,
2013-03-12 17:56:00,33.3,30.1,29.95,West,262,14.0,16.0,88,0.00,,,0.00,Wunderground v.1.15,2013-03-12 22:56:00,
2013-03-12 17:58:00,33.3,30.1,29.95,West,261,14.0,16.0,88,0.00,,,0.00,Wunderground v.1.15,2013-03-12 22:58:00,
2013-03-12 17:59:00,33.2,30.0,29.95,West,259,14.0,20.0,88,0.00,,,0.00,Wunderground v.1.15,2013-03-12 22:59:00,
2013-03-12 18:00:00,33.2,30.0,29.95,WSW,250,14.0,15.0,88,0.00,,,0.00,Wunderground v.1.15,2013-03-12 23:00:00,
2013-03-12 18:01:00,33.2,29.8,29.95,WSW,249,14.0,23.0,87,0.00,,,0.00,Wunderground v.1.15,2013-03-12 23:01:00,
2013-03-12 18:03:00,33.1,29.7,29.95,WSW,255,15.0,23.0,87,0.00,,,0.00,Wunderground v.1.15,2013-03-12 23:03:00,
2013-03-12 18:05:00,33.0,29.8,29.95,West,273,15.0,23.0,88,0.00,,,0.00,Wunderground v.1.15,2013-03-12 23:05:00,
2013-03-12 18:06:00,33.0,29.8,29.95,WSW,252,15.0,23.0,88,0.00,,,0.00,Wunderground v.1.15,2013-03-12 23:06:00,
2013-03-12 18:07:00,33.0,29.8,29.95,WSW,254,15.0,23.0,88,0.00,,,0.00,Wunderground v.1.15,2013-03-12 23:07:00,
2013-03-12 18:09:00,33.0,29.8,29.95,West,260,15.0,23.0,88,0.00,,,0.00,Wunderground v.1.15,2013-03-12 23:09:00,
2013-03-12 18:12:00,33.0,30.1,29.95,West,259,14.0,20.0,89,0.00,,,0.00,Wunderground v.1.15,2013-03-12 23:12:00,
2013-03-12 18:15:00,33.0,29.8,29.95,WSW,252,14.0,20.0,88,0.00,,,0.00,Wunderground v.1.15,2013-03-12 23:15:00,
2013-03-12 18:16:00,33.0,29.8,29.95,WSW,249,14.0,20.0,88,0.00,,,0.00,Wunderground v.1.15,2013-03-12 23:16:00,
2013-03-12 18:17:00,33.0,30.1,29.95,West,275,13.0,20.0,89,0.00,,,0.00,Wunderground v.1.15,2013-03-12 23:17:00,
2013-03-12 18:20:00,32.9,29.7,29.95,West,275,14.0,17.0,88,0.00,,,0.00,Wunderground v.1.15,2013-03-12 23:20:00,
2013-03-12 18:22:00,32.9,29.7,29.95,WSW,252,14.0,21.0,88,0.00,,,0.00,Wunderground v.1.15,2013-03-12 23:22:00,
2013-03-12 18:23:00,32.9,29.7,29.95,West,280,14.0,21.0,88,0.00,,,0.00,Wunderground v.1.15,2013-03-12 23:23:00,
2013-03-12 18:26:00,32.9,29.5,29.95,West,261,14.0,21.0,87,0.00,,,0.00,Wunderground v.1.15,2013-03-12 23:26:00,
2013-03-12 18:27:00,32.9,29.5,29.95,WSW,245,14.0,21.0,87,0.00,,,0.00,Wunderground v.1.15,2013-03-12 23:27:00,
2013-03-12 18:29:00,32.9,29.5,29.95,West,269,15.0,21.0,87,0.00,,,0.00,Wunderground v.1.15,2013-03-12 23:29:00,
2013-03-12 18:30:00,33.0,29.6,29.95,West,263,15.0,15.0,87,0.00,,,0.00,Wunderground v.1.15,2013-03-12 23:30:00,
2013-03-12 18:35:00,32.7,29.8,29.96,West,263,17.0,32.0,89,0.00,,,0.00,Wunderground v.1.15,2013-03-12 23:35:00,
2013-03-12 18:36:00,32.5,29.9,29.96,West,279,17.0,32.0,90,0.00,,,0.00,Wunderground v.1.15,2013-03-12 23:36:00,
2013-03-12 18:37:00,32.3,30.0,29.96,West,274,18.0,32.0,91,0.00,,,0.00,Wunderground v.1.15,2013-03-12 23:37:00,
2013-03-12 18:40:00,31.8,29.7,29.96,West,278,19.0,21.0,92,0.00,,,0.00,Wunderground v.1.15,2013-03-12 23:40:00,
2013-03-12 18:43:00,31.5,29.7,29.95,WNW,300,20.0,25.0,93,0.00,,,0.00,Wunderground v.1.15,2013-03-12 23:43:00,
2013-03-12 18:45:00,31.4,29.6,29.96,NW,305,20.0,25.0,93,0.00,,,0.00,Wunderground v.1.15,2013-03-12 23:45:00,
2013-03-12 18:46:00,31.4,29.6,29.96,WNW,293,20.0,25.0,93,0.00,,,0.00,Wunderground v.1.15,2013-03-12 23:46:00,
2013-03-12 18:47:00,31.4,29.6,29.96,WNW,288,20.0,25.0,93,0.00,,,0.00,Wunderground v.1.15,2013-03-12 23:47:00,
2013-03-12 18:49:00,31.2,29.4,29.96,WNW,301,20.0,30.0,93,0.00,,,0.00,Wunderground v.1.15,2013-03-12 23:49:00,
2013-03-12 18:51:00,31.1,29.3,29.96,NW,309,20.0,23.0,93,0.00,,,0.00,Wunderground v.1.15,2013-03-12 23:51:00,
2013-03-12 18:53:00,31.1,29.3,29.96,WNW,301,19.0,23.0,93,0.00,,,0.00,Wunderground v.1.15,2013-03-12 23:53:00,
2013-03-12 18:55:00,31.0,29.5,29.97,WNW,300,19.0,23.0,94,0.00,,,0.00,Wunderground v.1.15,2013-03-12 23:55:00,
2013-03-12 18:57:00,30.9,29.1,29.97,NW,308,20.0,23.0,93,0.00,,,0.00,Wunderground v.1.15,2013-03-12 23:57:00,
2013-03-12 19:00:00,30.9,28.9,29.97,WNW,288,21.0,22.0,92,0.00,,,0.00,Wunderground v.1.15,2013-03-13 00:00:00,
2013-03-12 19:02:00,30.9,28.9,29.97,WNW,297,21.0,23.0,92,0.00,,,0.00,Wunderground v.1.15,2013-03-13 00:02:00,
2013-03-12 19:05:00,31.0,28.7,29.97,West,280,22.0,24.0,91,0.00,,,0.00,Wunderground v.1.15,2013-03-13 00:05:00,
2013-03-12 19:07:00,31.0,28.4,29.97,WNW,282,22.0,26.0,90,0.00,,,0.00,Wunderground v.1.15,2013-03-13 00:07:00,
2013-03-12 19:08:00,30.9,28.3,29.97,WNW,300,22.0,26.0,90,0.00,,,0.00,Wunderground v.1.15,2013-03-13 00:08:00,
2013-03-12 19:09:00,30.9,28.0,29.97,NW,307,22.0,26.0,89,0.00,,,0.00,Wunderground v.1.15,2013-03-13 00:09:00,
2013-03-12 19:11:00,30.9,28.0,29.97,WNW,300,22.0,27.0,89,0.00,,,0.00,Wunderground v.1.15,2013-03-13 00:11:00,
2013-03-12 19:13:00,30.9,27.8,29.97,WNW,297,23.0,27.0,88,0.00,,,0.00,Wunderground v.1.15,2013-03-13 00:13:00,
2013-03-12 19:14:00,30.9,27.8,29.97,WNW,298,23.0,32.0,88,0.00,,,0.00,Wunderground v.1.15,2013-03-13 00:14:00,
2013-03-12 19:17:00,30.9,27.8,29.97,WNW,298,23.0,32.0,88,0.00,,,0.00,Wunderground v.1.15,2013-03-13 00:17:00,
2013-03-12 19:19:00,30.9,27.5,29.98,WNW,292,23.0,32.0,87,0.00,,,0.00,Wunderground v.1.15,2013-03-13 00:19:00,
2013-03-12 19:20:00,30.9,27.5,29.98,WNW,301,22.0,25.0,87,0.00,,,0.00,Wunderground v.1.15,2013-03-13 00:20:00,
2013-03-12 19:23:00,30.7,27.0,29.98,NW,308,23.0,31.0,86,0.00,,,0.00,Wunderground v.1.15,2013-03-13 00:23:00,
2013-03-12 19:24:00,30.6,26.3,29.98,WNW,294,23.0,31.0,84,0.00,,,0.00,Wunderground v.1.15,2013-03-13 00:24:00,
2013-03-12 19:25:00,30.6,26.3,29.98,WNW,296,23.0,31.0,84,0.00,,,0.00,Wunderground v.1.15,2013-03-13 00:25:00,
2013-03-12 19:31:00,30.7,25.6,29.98,WNW,298,25.0,29.0,81,0.00,,,0.00,Wunderground v.1.15,2013-03-13 00:31:00,
2013-03-12 19:32:00,30.7,25.6,29.98,WNW,301,25.0,29.0,81,0.00,,,0.00,Wunderground v.1.15,2013-03-13 00:32:00,
2013-03-12 19:33:00,30.7,25.9,29.98,WNW,303,24.0,29.0,82,0.00,,,0.00,Wunderground v.1.15,2013-03-13 00:33:00,
2013-03-12 19:35:00,30.7,25.6,29.98,NW,308,23.0,29.0,81,0.00,,,0.00,Wunderground v.1.15,2013-03-13 00:35:00,
2013-03-12 19:41:00,30.6,24.9,29.98,NW,306,25.0,29.0,79,0.00,,,0.00,Wunderground v.1.15,2013-03-13 00:41:00,
2013-03-12 19:43:00,30.6,24.6,29.99,West,275,25.0,31.0,78,0.00,,,0.00,Wunderground v.1.15,2013-03-13 00:43:00,
2013-03-12 19:44:00,30.6,24.6,29.98,WNW,296,26.0,31.0,78,0.00,,,0.00,Wunderground v.1.15,2013-03-13 00:44:00,
2013-03-12 19:45:00,30.6,24.6,29.98,WNW,300,26.0,31.0,78,0.00,,,0.00,Wunderground v.1.15,2013-03-13 00:45:00,
2013-03-12 19:46:00,30.5,24.5,29.99,WNW,302,26.0,31.0,78,0.00,,,0.00,Wunderground v.1.15,2013-03-13 00:46:00,
2013-03-12 19:48:00,30.5,24.8,29.99,WNW,296,26.0,31.0,79,0.00,,,0.00,Wunderground v.1.15,2013-03-13 00:48:00,
2013-03-12 19:52:00,30.3,24.9,29.99,WNW,294,24.0,25.0,80,0.00,,,0.00,Wunderground v.1.15,2013-03-13 00:52:00,
2013-03-12 19:53:00,30.3,24.6,29.99,WNW,289,24.0,25.0,79,0.00,,,0.00,Wunderground v.1.15,2013-03-13 00:53:00,
2013-03-12 19:54:00,30.3,25.2,30.00,WNW,296,24.0,27.0,81,0.00,,,0.00,Wunderground v.1.15,2013-03-13 00:54:00,
2013-03-12 19:56:00,30.2,24.8,29.99,NW,309,23.0,33.0,80,0.00,,,0.00,Wunderground v.1.15,2013-03-13 00:56:00,
2013-03-12 19:58:00,30.1,24.4,30.00,WNW,297,24.0,33.0,79,0.00,,,0.00,Wunderground v.1.15,2013-03-13 00:58:00,
2013-03-12 19:59:00,29.9,23.9,30.00,WNW,299,25.0,33.0,78,0.00,,,0.00,Wunderground v.1.15,2013-03-13 00:59:00,
2013-03-12 20:00:00,29.9,23.9,30.00,WNW,300,25.0,34.0,78,0.00,,,0.00,Wunderground v.1.15,2013-03-13 01:00:00,
2013-03-12 20:01:00,29.8,23.8,30.00,NW,316,26.0,34.0,78,0.00,,,0.00,Wunderground v.1.15,2013-03-13 01:01:00,
2013-03-12 20:04:00,29.6,23.3,30.00,NW,310,28.0,34.0,77,0.00,,,0.00,Wunderground v.1.15,2013-03-13 01:04:00,
2013-03-12 20:05:00,29.6,23.3,30.00,WNW,300,29.0,34.0,77,0.00,,,0.00,Wunderground v.1.15,2013-03-13 01:05:00,
2013-03-12 20:07:00,29.5,23.5,30.00,WNW,300,29.0,34.0,78,0.00,,,0.00,Wunderground v.1.15,2013-03-13 01:07:00,
2013-03-12 20:11:00,29.4,23.4,30.00,WNW,296,29.0,29.0,78,0.00,,,0.00,Wunderground v.1.15,2013-03-13 01:11:00,
2013-03-12 20:12:00,29.4,23.7,30.00,West,276,28.0,29.0,79,0.00,,,0.00,Wunderground v.1.15,2013-03-13 01:12:00,